BBC305 LIRF-CYYZ

Flight info

Callsign BBC305
Flight time 9h 35m
Altitude 38000
Route PODOX DCT TOBGA DCT DOBIM DCT PIGOS DCT BODRU DCT KOTIT DCT ETREK DCT NOQAS DCT LERGA DCT FOUCO DCT MANAK UY110 TIRAV UT183 BAGAD DCT AMPOP DCT LULOX DCT LIMRI/M084F390 NATF TUDEP/N0489F400 N530A MIILS DCT VILRO DCT SAVEX Q806 TUKIR IMEBA9
Aircraft B788/H-SDE2E3FGHIJ3J4J5M1RWXY/LB1D1

Departure

Time 2026-05-05 08:13
Airport Rome–Fiumicino Leonardo da Vinci International Airport (LIRF)

Arrival

Time 2026-05-05 17:49
Airport Toronto Pearson International Airport (CYYZ)
Time Latitude Longitude Altitude Speed Heading
2026-05-05 07:42 41.79850 12.24654 20 ft 0 kts 159°
2026-05-05 08:02 41.79885 12.24636 23 ft 12 kts 150°
2026-05-05 08:02 41.79896 12.24617 23 ft 3 kts 91°
2026-05-05 08:03 41.79894 12.24601 21 ft 0 kts 64°
2026-05-05 08:03 41.79894 12.24602 23 ft 0 kts 68°
2026-05-05 08:03 41.79894 12.24603 23 ft 0 kts 76°
2026-05-05 08:03 41.79897 12.24612 20 ft 1 kts 51°
2026-05-05 08:04 41.79905 12.24618 21 ft 0 kts 21°
2026-05-05 08:04 41.79910 12.24621 20 ft 2 kts 24°
2026-05-05 08:04 41.79925 12.24630 21 ft 3 kts 28°
2026-05-05 08:04 41.79953 12.24663 20 ft 7 kts 53°
2026-05-05 08:05 41.79982 12.24740 20 ft 11 kts 65°
2026-05-05 08:05 41.80049 12.24785 20 ft 13 kts
2026-05-05 08:05 41.80103 12.24874 19 ft 14 kts 76°
2026-05-05 08:05 41.80106 12.25021 20 ft 17 kts 101°
2026-05-05 08:06 41.80097 12.25193 20 ft 20 kts 77°
2026-05-05 08:06 41.80147 12.25381 20 ft 23 kts 70°
2026-05-05 08:06 41.80205 12.25588 22 ft 23 kts 70°
2026-05-05 08:06 41.80259 12.25784 20 ft 21 kts 69°
2026-05-05 08:07 41.80311 12.25963 20 ft 20 kts 70°
2026-05-05 08:07 41.80366 12.26117 20 ft 17 kts 41°
2026-05-05 08:07 41.80467 12.26174 25 ft 16 kts 11°
2026-05-05 08:07 41.80537 12.26270 26 ft 15 kts 70°
2026-05-05 08:08 41.80572 12.26400 24 ft 15 kts 70°
2026-05-05 08:08 41.80607 12.26527 25 ft 14 kts 69°
2026-05-05 08:08 41.80643 12.26657 22 ft 16 kts 70°
2026-05-05 08:08 41.80684 12.26804 20 ft 18 kts 70°
2026-05-05 08:09 41.80726 12.26958 20 ft 17 kts 70°
2026-05-05 08:09 41.80767 12.27099 20 ft 15 kts 59°
2026-05-05 08:09 41.80849 12.27123 18 ft 12 kts 342°
2026-05-05 08:09 41.80929 12.27085 20 ft 12 kts 339°
2026-05-05 08:10 41.80980 12.27032 19 ft 3 kts 275°
2026-05-05 08:10 41.80977 12.27003 19 ft 3 kts 253°
2026-05-05 08:10 41.80970 12.26973 20 ft 4 kts 250°
2026-05-05 08:10 41.80961 12.26941 20 ft 0 kts 250°
2026-05-05 08:12 41.80942 12.26867 20 ft 34 kts 249°
2026-05-05 08:12 41.80778 12.26270 27 ft 102 kts 249°
2026-05-05 08:13 41.80442 12.25109 33 ft 161 kts 247°
2026-05-05 08:13 41.80128 12.23712 740 ft 157 kts 256°
2026-05-05 08:13 41.79797 12.22216 1206 ft 178 kts 246°
2026-05-05 08:13 41.79368 12.20521 1582 ft 206 kts 246°
2026-05-05 08:14 41.79108 12.18503 2037 ft 240 kts 271°
2026-05-05 08:14 41.79684 12.16249 2549 ft 265 kts 289°
2026-05-05 08:14 41.80405 12.14196 3673 ft 258 kts 290°
2026-05-05 08:14 41.81114 12.12013 4757 ft 255 kts 288°
2026-05-05 08:15 41.81773 12.09835 5732 ft 257 kts 288°
2026-05-05 08:15 41.82461 12.07581 6706 ft 260 kts 289°
2026-05-05 08:15 41.83162 12.05334 7604 ft 263 kts 289°
2026-05-05 08:15 41.83873 12.03055 8482 ft 266 kts 290°
2026-05-05 08:16 41.84592 12.00736 9382 ft 268 kts 289°
2026-05-05 08:16 41.85309 11.98415 10233 ft 272 kts 289°
2026-05-05 08:16 41.86066 11.95959 10490 ft 298 kts 289°
2026-05-05 08:16 41.86895 11.93270 10650 ft 325 kts 290°
2026-05-05 08:17 41.87770 11.90453 11497 ft 326 kts 290°
2026-05-05 08:17 41.88646 11.87623 12290 ft 331 kts 289°
2026-05-05 08:17 41.89528 11.84754 13081 ft 335 kts 289°
2026-05-05 08:17 41.90422 11.81846 13871 ft 339 kts 289°
2026-05-05 08:18 41.91304 11.78977 14557 ft 343 kts 289°
2026-05-05 08:18 41.91923 11.76965 15063 ft 345 kts 289°
2026-05-05 08:18 41.92843 11.73968 15831 ft 350 kts 289°
2026-05-05 08:18 41.93797 11.70854 16557 ft 354 kts 289°
2026-05-05 08:19 41.94730 11.67807 17238 ft 359 kts 289°
2026-05-05 08:19 41.95685 11.64686 17916 ft 362 kts 289°
2026-05-05 08:19 41.96647 11.61534 18535 ft 367 kts 289°
2026-05-05 08:19 41.97619 11.58351 19163 ft 368 kts 289°
2026-05-05 08:20 41.98595 11.55146 19770 ft 371 kts 289°
2026-05-05 08:20 41.99573 11.51934 20367 ft 373 kts 289°
2026-05-05 08:20 42.00560 11.48686 20971 ft 376 kts 289°
2026-05-05 08:20 42.01545 11.45441 21539 ft 378 kts 289°
2026-05-05 08:21 42.02541 11.42157 22108 ft 381 kts 289°
2026-05-05 08:21 42.03543 11.38848 22663 ft 383 kts 289°
2026-05-05 08:21 42.04530 11.35586 23209 ft 386 kts 289°
2026-05-05 08:21 42.05547 11.32219 23736 ft 389 kts 289°
2026-05-05 08:22 42.06567 11.28836 24230 ft 390 kts 289°
2026-05-05 08:22 42.07581 11.25472 24685 ft 392 kts 289°
2026-05-05 08:22 42.08610 11.22053 25119 ft 393 kts 289°
2026-05-05 08:22 42.09628 11.18666 25533 ft 395 kts 289°
2026-05-05 08:23 42.10660 11.15226 25955 ft 397 kts 289°
2026-05-05 08:23 42.11702 11.11749 26374 ft 399 kts 289°
2026-05-05 08:23 42.12740 11.08280 26786 ft 401 kts 289°
2026-05-05 08:23 42.13762 11.04863 27175 ft 402 kts 289°
2026-05-05 08:24 42.14798 11.01391 27573 ft 404 kts 289°
2026-05-05 08:24 42.15851 10.97859 27953 ft 406 kts 288°
2026-05-05 08:24 42.16854 10.94490 28305 ft 408 kts 288°
2026-05-05 08:24 42.17157 10.93471 28412 ft 408 kts 288°
2026-05-05 08:25 42.17457 10.92463 28519 ft 409 kts 288°
2026-05-05 08:25 42.18520 10.88886 28885 ft 411 kts 288°
2026-05-05 08:25 42.19590 10.85278 29247 ft 413 kts 288°
2026-05-05 08:25 42.20645 10.81718 29593 ft 415 kts 288°
2026-05-05 08:26 42.21714 10.78102 29930 ft 416 kts 288°
2026-05-05 08:26 42.22794 10.74450 30249 ft 418 kts 288°
2026-05-05 08:26 42.23874 10.70787 30538 ft 420 kts 288°
2026-05-05 08:26 42.24955 10.67119 30821 ft 421 kts 288°
2026-05-05 08:27 42.26040 10.63434 31097 ft 423 kts 289°
2026-05-05 08:27 42.27367 10.59856 31361 ft 429 kts 298°
2026-05-05 08:27 42.29101 10.56596 31619 ft 436 kts 306°
2026-05-05 08:27 42.31266 10.53653 31875 ft 444 kts 314°
2026-05-05 08:28 42.33637 10.50935 32086 ft 447 kts 314°
2026-05-05 08:28 42.35994 10.48231 32336 ft 448 kts 314°
2026-05-05 08:28 42.38381 10.45495 32584 ft 450 kts 314°
2026-05-05 08:28 42.40781 10.42743 32808 ft 452 kts 314°
2026-05-05 08:29 42.43185 10.39979 33045 ft 453 kts 314°
2026-05-05 08:29 42.45578 10.37224 33263 ft 455 kts 314°
2026-05-05 08:29 42.47984 10.34454 33480 ft 456 kts 314°
2026-05-05 08:30 42.52859 10.28832 33907 ft 459 kts 314°
2026-05-05 08:30 42.55271 10.26045 34098 ft 461 kts 314°
2026-05-05 08:30 42.57714 10.23220 34277 ft 462 kts 314°
2026-05-05 08:30 42.60162 10.20387 34530 ft 461 kts 314°
2026-05-05 08:31 42.62602 10.17560 34781 ft 461 kts 314°
2026-05-05 08:31 42.65051 10.14717 35015 ft 460 kts 314°
2026-05-05 08:31 42.67461 10.11918 35241 ft 460 kts 314°
2026-05-05 08:31 42.69888 10.09096 35487 ft 460 kts 314°
2026-05-05 08:32 42.72323 10.06262 35707 ft 460 kts 314°
2026-05-05 08:32 42.74755 10.03429 35953 ft 459 kts 314°
2026-05-05 08:32 42.77183 10.00597 36199 ft 458 kts 314°
2026-05-05 08:32 42.79600 9.97774 36436 ft 458 kts 314°
2026-05-05 08:33 42.82003 9.94965 36663 ft 457 kts 314°
2026-05-05 08:33 42.84434 9.92121 36898 ft 457 kts 314°
2026-05-05 08:33 42.86818 9.89328 37110 ft 457 kts 314°
2026-05-05 08:33 42.89128 9.86356 37339 ft 451 kts 306°
2026-05-05 08:34 42.91060 9.83017 37515 ft 447 kts 302°
2026-05-05 08:34 42.92908 9.79597 37727 ft 447 kts 302°
2026-05-05 08:34 42.94699 9.76179 37928 ft 444 kts 296°
2026-05-05 08:35 42.97292 9.68536 37977 ft 443 kts 288°
2026-05-05 08:35 42.99568 9.60779 37975 ft 439 kts 288°
2026-05-05 08:36 43.01830 9.53042 37961 ft 438 kts 288°
2026-05-05 08:36 43.04094 9.45276 37955 ft 438 kts 288°
2026-05-05 08:37 43.06340 9.37551 37959 ft 439 kts 288°
2026-05-05 08:37 43.08584 9.29807 37960 ft 439 kts 288°
2026-05-05 08:38 43.10831 9.22026 37965 ft 439 kts 288°
2026-05-05 08:38 43.13066 9.14265 37961 ft 440 kts 288°
2026-05-05 08:39 43.15321 9.06411 37979 ft 441 kts 288°
2026-05-05 08:39 43.17554 8.98610 37965 ft 441 kts 288°
2026-05-05 08:40 43.19785 8.90788 37967 ft 442 kts 287°
2026-05-05 08:40 43.22028 8.82904 37965 ft 443 kts 287°
2026-05-05 08:41 43.24254 8.75053 37971 ft 443 kts 287°
2026-05-05 08:41 43.26491 8.67138 37964 ft 444 kts 287°
2026-05-05 08:42 43.28720 8.59226 37968 ft 444 kts 287°
2026-05-05 08:42 43.30940 8.51322 37968 ft 444 kts 287°
2026-05-05 08:43 43.33150 8.43426 37966 ft 445 kts 287°
2026-05-05 08:43 43.35382 8.35429 37961 ft 445 kts 287°
2026-05-05 08:44 43.37601 8.27451 37968 ft 445 kts 287°
2026-05-05 08:44 43.39820 8.19448 37967 ft 446 kts 287°
2026-05-05 08:45 43.42019 8.11490 37964 ft 446 kts 287°
2026-05-05 08:45 43.44208 8.03543 37961 ft 447 kts 286°
2026-05-05 08:46 43.46411 7.95522 37964 ft 448 kts 286°
2026-05-05 08:46 43.48626 7.87426 37968 ft 448 kts 286°
2026-05-05 08:47 43.50809 7.79422 37970 ft 449 kts 286°
2026-05-05 08:47 43.52992 7.71395 37970 ft 449 kts 286°
2026-05-05 08:48 43.55193 7.63271 37970 ft 450 kts 286°
2026-05-05 08:48 43.57382 7.55166 37973 ft 451 kts 285°
2026-05-05 08:49 43.59580 7.47001 37972 ft 452 kts 285°
2026-05-05 08:49 43.61842 7.38968 37989 ft 455 kts 292°
2026-05-05 08:50 43.65486 7.31695 37970 ft 466 kts 304°
2026-05-05 08:50 43.69629 7.24768 37975 ft 466 kts 304°
2026-05-05 08:51 43.73749 7.17871 37975 ft 466 kts 304°
2026-05-05 08:51 43.77854 7.10979 37975 ft 466 kts 304°
2026-05-05 08:52 43.81987 7.04025 37977 ft 467 kts 303°
2026-05-05 08:52 43.86112 6.97068 37971 ft 467 kts 303°
2026-05-05 08:53 43.90233 6.90100 37971 ft 467 kts 303°
2026-05-05 08:53 43.94350 6.83123 37972 ft 468 kts 303°
2026-05-05 08:54 43.97786 6.77285 37957 ft 469 kts 303°
2026-05-05 08:54 44.02606 6.69080 37963 ft 471 kts 303°
2026-05-05 08:55 44.06074 6.63161 37959 ft 471 kts 303°
2026-05-05 08:55 44.10193 6.56115 37966 ft 471 kts 303°
2026-05-05 08:56 44.14302 6.49065 37946 ft 470 kts 303°
2026-05-05 08:56 44.18436 6.41961 37956 ft 471 kts 303°
2026-05-05 08:57 44.22571 6.34835 37948 ft 472 kts 303°
2026-05-05 08:57 44.26688 6.27726 37952 ft 472 kts 303°
2026-05-05 08:58 44.30876 6.20473 37952 ft 473 kts 303°
2026-05-05 08:58 44.35024 6.13276 37939 ft 473 kts 303°
2026-05-05 08:59 44.39134 6.06122 37959 ft 473 kts 303°
2026-05-05 08:59 44.43256 5.98934 37939 ft 473 kts 303°
2026-05-05 09:00 44.47346 5.91780 37930 ft 473 kts 303°
2026-05-05 09:00 44.51467 5.84555 37933 ft 474 kts 303°
2026-05-05 09:01 44.55616 5.77264 37938 ft 474 kts 303°
2026-05-05 09:01 44.59730 5.70013 37941 ft 474 kts 303°
2026-05-05 09:02 44.63818 5.62791 37938 ft 474 kts 303°
2026-05-05 09:02 44.67923 5.55517 37936 ft 476 kts 303°
2026-05-05 09:03 44.72054 5.48179 37934 ft 478 kts 303°
2026-05-05 09:03 44.76193 5.40811 37919 ft 478 kts 303°
2026-05-05 09:04 44.80291 5.33495 37924 ft 476 kts 303°
2026-05-05 09:04 44.84391 5.26156 37935 ft 475 kts 303°
2026-05-05 09:05 44.88493 5.18794 37944 ft 477 kts 303°
2026-05-05 09:05 44.92593 5.11418 37946 ft 477 kts 303°
2026-05-05 09:06 44.96671 5.04062 37950 ft 477 kts 303°
2026-05-05 09:06 45.00759 4.96670 37949 ft 478 kts 303°
2026-05-05 09:07 45.04844 4.89262 37948 ft 479 kts 303°
2026-05-05 09:07 45.08961 4.81778 37936 ft 480 kts 303°
2026-05-05 09:08 45.13045 4.74334 37927 ft 480 kts 303°
2026-05-05 09:08 45.16984 4.66682 37936 ft 475 kts 294°
2026-05-05 09:09 45.19197 4.58038 37930 ft 466 kts 275°
2026-05-05 09:09 45.19993 4.48869 37912 ft 465 kts 273°
2026-05-05 09:10 45.20728 4.39720 37902 ft 466 kts 273°
2026-05-05 09:10 45.21456 4.30603 37898 ft 467 kts 273°
2026-05-05 09:11 45.22176 4.21488 37901 ft 467 kts 272°
2026-05-05 09:11 45.22893 4.12314 37902 ft 467 kts 272°
2026-05-05 09:12 45.23603 4.03131 37904 ft 468 kts 272°
2026-05-05 09:12 45.24306 3.93939 37909 ft 468 kts 272°
2026-05-05 09:13 45.25000 3.84763 37913 ft 469 kts 272°
2026-05-05 09:13 45.25708 3.75549 37918 ft 470 kts 276°
2026-05-05 09:14 45.27161 3.66491 37911 ft 474 kts 279°
2026-05-05 09:14 45.28671 3.57396 37909 ft 475 kts 279°
2026-05-05 09:15 45.30204 3.48157 37894 ft 476 kts 279°
2026-05-05 09:15 45.31722 3.38937 37895 ft 476 kts 279°
2026-05-05 09:16 45.33223 3.29786 37897 ft 475 kts 279°
2026-05-05 09:16 45.34710 3.20656 37891 ft 476 kts 279°
2026-05-05 09:17 45.36193 3.11519 37894 ft 476 kts 279°
2026-05-05 09:17 45.37678 3.02304 37901 ft 477 kts 279°
2026-05-05 09:18 45.39160 2.93064 37905 ft 477 kts 279°
2026-05-05 09:18 45.40380 2.85417 37908 ft 478 kts 279°
2026-05-05 09:19 45.41849 2.76164 37911 ft 479 kts 279°
2026-05-05 09:19 45.43312 2.66893 37914 ft 479 kts 279°
2026-05-05 09:20 45.44773 2.57589 37920 ft 479 kts 279°
2026-05-05 09:20 45.46222 2.48299 37919 ft 479 kts 279°
2026-05-05 09:21 45.47657 2.39055 37922 ft 479 kts 279°
2026-05-05 09:21 45.49091 2.29756 37918 ft 479 kts 279°
2026-05-05 09:22 45.50505 2.20536 37916 ft 480 kts 279°
2026-05-05 09:22 45.51929 2.11203 37922 ft 480 kts 279°
2026-05-05 09:23 45.53335 2.01928 37919 ft 480 kts 279°
2026-05-05 09:23 45.54737 1.92628 37924 ft 480 kts 279°
2026-05-05 09:24 45.56140 1.83265 37922 ft 481 kts 279°
2026-05-05 09:24 45.57526 1.73965 37930 ft 481 kts 279°
2026-05-05 09:25 45.58918 1.64558 37924 ft 482 kts 279°
2026-05-05 09:25 45.60292 1.55222 37923 ft 482 kts 279°
2026-05-05 09:26 45.61668 1.45820 37913 ft 482 kts 279°
2026-05-05 09:26 45.63029 1.36455 37909 ft 483 kts 279°
2026-05-05 09:27 45.64386 1.27068 37914 ft 482 kts 279°
2026-05-05 09:27 45.65730 1.17711 37918 ft 482 kts 279°
2026-05-05 09:28 45.67077 1.08271 37918 ft 482 kts 279°
2026-05-05 09:28 45.68402 0.98931 37921 ft 482 kts 279°
2026-05-05 09:29 45.69732 0.89501 37922 ft 482 kts 279°
2026-05-05 09:29 45.71046 0.80120 37922 ft 482 kts 279°
2026-05-05 09:30 45.72352 0.70733 37927 ft 483 kts 279°
2026-05-05 09:30 45.73657 0.61302 37936 ft 483 kts 279°
2026-05-05 09:31 45.74956 0.51850 37943 ft 483 kts 279°
2026-05-05 09:31 45.77237 0.42723 37942 ft 488 kts 293°
2026-05-05 09:32 45.80135 0.33956 37949 ft 489 kts 293°
2026-05-05 09:32 45.83048 0.25097 37947 ft 489 kts 293°
2026-05-05 09:33 45.85933 0.16298 37943 ft 488 kts 293°
2026-05-05 09:33 45.88815 0.07479 37934 ft 488 kts 293°
2026-05-05 09:34 45.91673 -0.01299 37932 ft 488 kts 293°
2026-05-05 09:34 45.94549 -0.10159 37925 ft 488 kts 293°
2026-05-05 09:35 45.97399 -0.18972 37923 ft 488 kts 292°
2026-05-05 09:35 46.01673 -0.32243 37926 ft 489 kts 293°
2026-05-05 09:36 46.04529 -0.41149 37916 ft 490 kts 293°
2026-05-05 09:36 46.07368 -0.50032 37918 ft 489 kts 292°
2026-05-05 09:37 46.10211 -0.58959 37915 ft 489 kts 292°
2026-05-05 09:37 46.13048 -0.67897 37914 ft 489 kts 292°
2026-05-05 09:38 46.15856 -0.76777 37917 ft 490 kts 292°
2026-05-05 09:38 46.18683 -0.85746 37915 ft 490 kts 292°
2026-05-05 09:39 46.22047 -0.94289 37933 ft 493 kts 310°
2026-05-05 09:39 46.27128 -1.00909 37923 ft 497 kts 320°
2026-05-05 09:40 46.32563 -1.07164 37920 ft 496 kts 320°
2026-05-05 09:40 46.37940 -1.13429 37917 ft 497 kts 320°
2026-05-05 09:41 46.43346 -1.19713 37917 ft 497 kts 320°
2026-05-05 09:41 46.48711 -1.25979 37914 ft 497 kts 320°
2026-05-05 09:42 46.54109 -1.32295 37918 ft 496 kts 320°
2026-05-05 09:42 46.59465 -1.38599 37923 ft 496 kts 317°
2026-05-05 09:43 46.64290 -1.45711 37919 ft 495 kts 312°
2026-05-05 09:43 46.69066 -1.52977 37920 ft 496 kts 313°
2026-05-05 09:44 46.73820 -1.60174 37920 ft 496 kts 312°
2026-05-05 09:44 46.78594 -1.67464 37918 ft 496 kts 313°
2026-05-05 09:45 46.83375 -1.74756 37921 ft 495 kts 312°
2026-05-05 09:45 46.88107 -1.82011 37913 ft 495 kts 312°
2026-05-05 09:46 46.92882 -1.89340 37914 ft 495 kts 312°
2026-05-05 09:46 46.97606 -1.96617 37914 ft 496 kts 312°
2026-05-05 09:47 47.02417 -2.03870 37912 ft 496 kts 314°
2026-05-05 09:47 47.07228 -2.11101 37917 ft 496 kts 313°
2026-05-05 09:48 47.12101 -2.18307 37920 ft 496 kts 314°
2026-05-05 09:48 47.16930 -2.25526 37921 ft 497 kts 313°
2026-05-05 09:49 47.21780 -2.32777 37915 ft 497 kts 314°
2026-05-05 09:49 47.26629 -2.40047 37915 ft 497 kts 313°
2026-05-05 09:50 47.31448 -2.47298 37916 ft 497 kts 314°
2026-05-05 09:50 47.36257 -2.54548 37917 ft 497 kts 313°
2026-05-05 09:51 47.41089 -2.61859 37919 ft 497 kts 313°
2026-05-05 09:51 47.45908 -2.69166 37914 ft 497 kts 313°
2026-05-05 09:52 47.50735 -2.76508 37915 ft 497 kts 313°
2026-05-05 09:52 47.55547 -2.83847 37918 ft 496 kts 313°
2026-05-05 09:53 47.60311 -2.91164 37916 ft 496 kts 313°
2026-05-05 09:53 47.65003 -2.98698 37916 ft 496 kts 312°
2026-05-05 09:54 47.69722 -3.06137 37921 ft 496 kts 313°
2026-05-05 09:54 47.74397 -3.13609 37938 ft 496 kts 312°
2026-05-05 09:55 47.79117 -3.21135 37941 ft 496 kts 313°
2026-05-05 09:55 47.83820 -3.28671 37942 ft 496 kts 312°
2026-05-05 09:56 47.88500 -3.36189 37942 ft 496 kts 312°
2026-05-05 09:56 47.93189 -3.43740 37944 ft 495 kts 312°
2026-05-05 09:57 47.97838 -3.51252 37942 ft 494 kts 313°
2026-05-05 09:57 48.02498 -3.58801 37946 ft 494 kts 313°
2026-05-05 09:58 48.07132 -3.66331 37950 ft 493 kts 313°
2026-05-05 09:58 48.11785 -3.73912 37953 ft 492 kts 313°
2026-05-05 09:59 48.16385 -3.81429 37959 ft 492 kts 313°
2026-05-05 09:59 48.20226 -3.87721 37958 ft 492 kts 313°
2026-05-05 10:00 48.24891 -3.95385 37961 ft 492 kts 313°
2026-05-05 10:00 48.29529 -4.03026 37964 ft 492 kts 313°
2026-05-05 10:01 48.34120 -4.10612 37966 ft 493 kts 313°
2026-05-05 10:01 48.38732 -4.18253 37970 ft 493 kts 313°
2026-05-05 10:02 48.43322 -4.25882 37971 ft 493 kts 313°
2026-05-05 10:02 48.47921 -4.33547 37971 ft 493 kts 313°
2026-05-05 10:03 48.52520 -4.41236 37971 ft 493 kts 313°
2026-05-05 10:03 48.57116 -4.48941 37965 ft 493 kts 313°
2026-05-05 10:04 48.61688 -4.56629 37965 ft 493 kts 313°
2026-05-05 10:04 48.66250 -4.64323 37971 ft 492 kts 313°
2026-05-05 10:05 48.70818 -4.72049 37978 ft 492 kts 313°
2026-05-05 10:05 48.75374 -4.79777 37979 ft 492 kts 312°
2026-05-05 10:06 48.79935 -4.87538 37985 ft 492 kts 312°
2026-05-05 10:06 48.84463 -4.95264 37987 ft 492 kts 312°
2026-05-05 10:07 48.89010 -5.03045 37989 ft 491 kts 312°
2026-05-05 10:07 48.93552 -5.10842 38003 ft 491 kts 312°
2026-05-05 10:08 48.98053 -5.18591 37998 ft 491 kts 312°
2026-05-05 10:08 49.02572 -5.26394 38001 ft 490 kts 312°
2026-05-05 10:09 49.07050 -5.34151 38005 ft 489 kts 312°
2026-05-05 10:09 49.11544 -5.41956 38006 ft 488 kts 312°
2026-05-05 10:10 49.16027 -5.49769 38009 ft 487 kts 312°
2026-05-05 10:10 49.20468 -5.57527 38005 ft 487 kts 312°
2026-05-05 10:11 49.24916 -5.65323 38006 ft 486 kts 312°
2026-05-05 10:11 49.29365 -5.73144 38004 ft 486 kts 312°
2026-05-05 10:12 49.33786 -5.80939 38010 ft 486 kts 312°
2026-05-05 10:12 49.38229 -5.88796 38007 ft 487 kts 312°
2026-05-05 10:13 49.42672 -5.96677 38010 ft 487 kts 312°
2026-05-05 10:13 49.47079 -6.04518 38014 ft 487 kts 311°
2026-05-05 10:14 49.51502 -6.12411 38015 ft 487 kts 311°
2026-05-05 10:14 49.55624 -6.20679 38026 ft 486 kts 307°
2026-05-05 10:15 49.59547 -6.29117 38032 ft 486 kts 307°
2026-05-05 10:15 49.63499 -6.37591 38037 ft 485 kts 307°
2026-05-05 10:16 49.67435 -6.46091 38039 ft 485 kts 307°
2026-05-05 10:16 49.71332 -6.54513 38039 ft 485 kts 307°
2026-05-05 10:17 49.75247 -6.63013 38042 ft 484 kts 307°
2026-05-05 10:17 49.79155 -6.71519 38040 ft 484 kts 306°
2026-05-05 10:18 49.83034 -6.79991 38042 ft 484 kts 306°
2026-05-05 10:18 49.86926 -6.88517 38046 ft 483 kts 307°
2026-05-05 10:19 49.90782 -6.96994 38051 ft 482 kts 306°
2026-05-05 10:19 49.94644 -7.05509 38057 ft 482 kts 306°
2026-05-05 10:20 49.98495 -7.14029 38053 ft 481 kts 306°
2026-05-05 10:20 50.02315 -7.22506 38054 ft 481 kts 306°
2026-05-05 10:21 50.06158 -7.31062 38056 ft 481 kts 306°
2026-05-05 10:21 50.10014 -7.39678 38066 ft 480 kts 306°
2026-05-05 10:22 50.13836 -7.48240 38065 ft 480 kts 306°
2026-05-05 10:22 50.17643 -7.56800 38066 ft 480 kts 306°
2026-05-05 10:23 50.21429 -7.65341 38072 ft 479 kts 306°
2026-05-05 10:23 50.25217 -7.73911 38074 ft 479 kts 306°
2026-05-05 10:24 50.28994 -7.82488 38077 ft 479 kts 306°
2026-05-05 10:24 50.32768 -7.91082 38078 ft 478 kts 306°
2026-05-05 10:25 50.36475 -7.99708 38094 ft 479 kts 299°
2026-05-05 10:25 50.39212 -8.09324 38093 ft 480 kts 294°
2026-05-05 10:26 50.41795 -8.18918 38092 ft 480 kts 294°
2026-05-05 10:26 50.44406 -8.28565 38102 ft 479 kts 294°
2026-05-05 10:27 50.46974 -8.38154 38110 ft 479 kts 294°
2026-05-05 10:27 50.49558 -8.47806 38111 ft 478 kts 294°
2026-05-05 10:28 50.52122 -8.57443 38109 ft 478 kts 294°
2026-05-05 10:28 50.54681 -8.67090 38112 ft 477 kts 294°
2026-05-05 10:29 50.57230 -8.76749 38111 ft 477 kts 294°
2026-05-05 10:29 50.59765 -8.86389 38113 ft 476 kts 293°
2026-05-05 10:30 50.62292 -8.96042 38110 ft 475 kts 293°
2026-05-05 10:30 50.64805 -9.05682 38110 ft 475 kts 293°
2026-05-05 10:31 50.67291 -9.15259 38114 ft 474 kts 293°
2026-05-05 10:31 50.69786 -9.24910 38111 ft 473 kts 293°
2026-05-05 10:32 50.72264 -9.34538 38114 ft 473 kts 293°
2026-05-05 10:32 50.74715 -9.44101 38111 ft 475 kts 293°
2026-05-05 10:33 50.77199 -9.53832 38114 ft 477 kts 293°
2026-05-05 10:33 50.79673 -9.63569 38111 ft 476 kts 293°
2026-05-05 10:34 50.82122 -9.73249 38118 ft 475 kts 292°
2026-05-05 10:34 50.84570 -9.82965 38121 ft 474 kts 292°
2026-05-05 10:35 50.86992 -9.92620 38114 ft 474 kts 292°
2026-05-05 10:35 50.89429 -10.02380 38118 ft 473 kts 292°
2026-05-05 10:36 50.91830 -10.12034 38123 ft 473 kts 292°
2026-05-05 10:36 50.94224 -10.21705 38120 ft 473 kts 292°
2026-05-05 10:37 50.96619 -10.31423 38126 ft 472 kts 292°
2026-05-05 10:37 50.99008 -10.41155 38122 ft 472 kts 292°
2026-05-05 10:38 51.00986 -10.49248 38116 ft 472 kts 292°
2026-05-05 10:38 51.03732 -10.60536 38125 ft 471 kts 292°
2026-05-05 10:39 51.05697 -10.68644 38126 ft 472 kts 292°
2026-05-05 10:39 51.08060 -10.78441 38133 ft 472 kts 291°
2026-05-05 10:40 51.10395 -10.88162 38133 ft 472 kts 291°
2026-05-05 10:40 51.12736 -10.97949 38133 ft 472 kts 291°
2026-05-05 10:41 51.15047 -11.07658 38128 ft 472 kts 291°
2026-05-05 10:41 51.17374 -11.17478 38133 ft 472 kts 291°
2026-05-05 10:42 51.20827 -11.32133 38133 ft 471 kts 291°
2026-05-05 10:43 51.23124 -11.41935 38138 ft 471 kts 291°
2026-05-05 10:43 51.25416 -11.51761 38137 ft 471 kts 291°
2026-05-05 10:44 51.27685 -11.61536 38147 ft 471 kts 291°
2026-05-05 10:44 51.29948 -11.71328 38147 ft 471 kts 291°
2026-05-05 10:45 51.32213 -11.81174 38148 ft 471 kts 290°
2026-05-05 10:45 51.34469 -11.91024 38146 ft 471 kts 290°
2026-05-05 10:46 51.36702 -12.00825 38150 ft 471 kts 290°
2026-05-05 10:46 51.38937 -12.10677 38154 ft 470 kts 290°
2026-05-05 10:47 51.41154 -12.20493 38149 ft 470 kts 290°
2026-05-05 10:47 51.43375 -12.30377 38151 ft 470 kts 290°
2026-05-05 10:48 51.45585 -12.40257 38160 ft 470 kts 290°
2026-05-05 10:48 51.47775 -12.50090 38161 ft 470 kts 290°
2026-05-05 10:49 51.49964 -12.59970 38162 ft 470 kts 290°
2026-05-05 10:49 51.52136 -12.69819 38163 ft 469 kts 290°
2026-05-05 10:50 51.54311 -12.79728 38167 ft 469 kts 290°
2026-05-05 10:50 51.56474 -12.89632 38169 ft 469 kts 290°
2026-05-05 10:51 51.58615 -12.99478 38173 ft 469 kts 290°
2026-05-05 10:51 51.60759 -13.09390 38170 ft 469 kts 289°
2026-05-05 10:52 51.62897 -13.19323 38181 ft 468 kts 289°
2026-05-05 10:52 51.65011 -13.29186 38177 ft 468 kts 289°
2026-05-05 10:53 51.67128 -13.39118 38179 ft 469 kts 289°
2026-05-05 10:53 51.69242 -13.49078 38180 ft 468 kts 289°
2026-05-05 10:54 51.71328 -13.58960 38185 ft 468 kts 289°
2026-05-05 10:54 51.73417 -13.68905 38187 ft 468 kts 289°
2026-05-05 10:55 51.75501 -13.78873 38190 ft 469 kts 289°
2026-05-05 10:55 51.77584 -13.88885 38190 ft 469 kts 289°
2026-05-05 10:56 51.79644 -13.98837 38192 ft 469 kts 289°
2026-05-05 10:56 51.81696 -14.08803 38194 ft 469 kts 289°
2026-05-05 10:57 51.83751 -14.18832 38194 ft 469 kts 289°
2026-05-05 10:57 51.85796 -14.28860 38195 ft 469 kts 288°
2026-05-05 10:58 51.87835 -14.38912 38200 ft 468 kts 288°
2026-05-05 10:58 51.89846 -14.48879 38199 ft 468 kts 288°
2026-05-05 10:59 51.91863 -14.58924 38203 ft 469 kts 288°
2026-05-05 10:59 51.93864 -14.68943 38204 ft 469 kts 288°
2026-05-05 11:00 51.95866 -14.79016 38205 ft 469 kts 288°
2026-05-05 11:00 51.97846 -14.89029 38209 ft 469 kts 288°
2026-05-05 11:01 51.99837 -14.99152 38207 ft 470 kts 288°
2026-05-05 11:01 52.02075 -15.09135 38211 ft 470 kts 290°
2026-05-05 11:02 52.04288 -15.19081 38215 ft 470 kts 290°
2026-05-05 11:02 52.06529 -15.29049 38214 ft 469 kts 290°
2026-05-05 11:03 52.08740 -15.39029 38215 ft 468 kts 290°
2026-05-05 11:03 52.10952 -15.49002 38210 ft 468 kts 290°
2026-05-05 11:04 52.13132 -15.58911 38217 ft 468 kts 290°
2026-05-05 11:04 52.15319 -15.68883 38226 ft 468 kts 290°
2026-05-05 11:05 52.17503 -15.78896 38228 ft 468 kts 289°
2026-05-05 11:05 52.19679 -15.88919 38224 ft 468 kts 289°
2026-05-05 11:06 52.21830 -15.98874 38227 ft 468 kts 289°
2026-05-05 11:06 52.23987 -16.08910 38230 ft 468 kts 289°
2026-05-05 11:07 52.26133 -16.18940 38232 ft 467 kts 289°
2026-05-05 11:07 52.28266 -16.28963 38230 ft 467 kts 289°
2026-05-05 11:08 52.30391 -16.38991 38232 ft 467 kts 289°
2026-05-05 11:08 52.32493 -16.48967 38231 ft 467 kts 289°
2026-05-05 11:09 52.34605 -16.59036 38232 ft 467 kts 289°
2026-05-05 11:09 52.36708 -16.69113 38235 ft 467 kts 289°
2026-05-05 11:10 52.38786 -16.79125 38240 ft 467 kts 289°
2026-05-05 11:10 52.40872 -16.89218 38237 ft 467 kts 289°
2026-05-05 11:11 52.42946 -16.99311 38241 ft 467 kts 288°
2026-05-05 11:11 52.45018 -17.09440 38242 ft 468 kts 288°
2026-05-05 11:12 52.47064 -17.19496 38256 ft 468 kts 288°
2026-05-05 11:12 52.49119 -17.29652 38245 ft 467 kts 288°
2026-05-05 11:13 52.51164 -17.39805 38249 ft 467 kts 288°
2026-05-05 11:13 52.53187 -17.49903 38245 ft 467 kts 288°
2026-05-05 11:14 52.55199 -17.60002 38247 ft 467 kts 288°
2026-05-05 11:14 52.57212 -17.70152 38249 ft 467 kts 288°
2026-05-05 11:15 52.59220 -17.80336 38248 ft 466 kts 288°
2026-05-05 11:15 52.61203 -17.90443 38248 ft 466 kts 288°
2026-05-05 11:16 52.63185 -18.00597 38248 ft 466 kts 288°
2026-05-05 11:16 52.65162 -18.10782 38249 ft 466 kts 288°
2026-05-05 11:17 52.67115 -18.20898 38251 ft 466 kts 288°
2026-05-05 11:17 52.69074 -18.31094 38253 ft 466 kts 288°
2026-05-05 11:18 52.71028 -18.41323 38256 ft 466 kts 288°
2026-05-05 11:18 52.72958 -18.51481 38261 ft 467 kts 287°
2026-05-05 11:19 52.74898 -18.61747 38261 ft 468 kts 287°
2026-05-05 11:19 52.76819 -18.71967 38260 ft 468 kts 287°
2026-05-05 11:20 52.78740 -18.82245 38263 ft 468 kts 287°
2026-05-05 11:20 52.80653 -18.92535 38266 ft 468 kts 287°
2026-05-05 11:21 52.82549 -19.02789 38269 ft 468 kts 287°
2026-05-05 11:21 52.84446 -19.13106 38265 ft 468 kts 287°
2026-05-05 11:22 52.86332 -19.23424 38266 ft 468 kts 287°
2026-05-05 11:22 52.88211 -19.33761 38271 ft 469 kts 287°
2026-05-05 11:23 52.90075 -19.44070 38274 ft 469 kts 287°
2026-05-05 11:23 52.91943 -19.54462 38274 ft 470 kts 287°
2026-05-05 11:24 52.93790 -19.64796 38286 ft 470 kts 287°
2026-05-05 11:24 52.95639 -19.75199 38280 ft 470 kts 287°
2026-05-05 11:25 52.97469 -19.85561 38287 ft 470 kts 287°
2026-05-05 11:25 52.99300 -19.95981 38282 ft 470 kts 287°
2026-05-05 11:26 53.00205 -20.04834 38293 ft 470 kts 275°
2026-05-05 11:26 53.00724 -20.17471 38290 ft 470 kts 275°
2026-05-05 11:27 53.01089 -20.26562 38300 ft 470 kts 275°
2026-05-05 11:27 53.01514 -20.37363 38291 ft 470 kts 275°
2026-05-05 11:28 53.01932 -20.48230 38289 ft 470 kts 275°
2026-05-05 11:28 53.02337 -20.59031 38288 ft 470 kts 275°
2026-05-05 11:29 53.02735 -20.69893 38290 ft 470 kts 275°
2026-05-05 11:29 53.03122 -20.80746 38291 ft 470 kts 275°
2026-05-05 11:30 53.03497 -20.91541 38284 ft 470 kts 274°
2026-05-05 11:30 53.03865 -21.02423 38294 ft 470 kts 274°
2026-05-05 11:31 53.04221 -21.13204 38291 ft 469 kts 274°
2026-05-05 11:31 53.04568 -21.24064 38285 ft 470 kts 274°
2026-05-05 11:32 53.04904 -21.34854 38290 ft 470 kts 274°
2026-05-05 11:32 53.05232 -21.45715 38296 ft 469 kts 274°
2026-05-05 11:33 53.05549 -21.56543 38289 ft 470 kts 274°
2026-05-05 11:33 53.05858 -21.67425 38294 ft 470 kts 274°
2026-05-05 11:34 53.06156 -21.78292 38299 ft 470 kts 274°
2026-05-05 11:34 53.06443 -21.89097 38299 ft 470 kts 274°
2026-05-05 11:35 53.06722 -21.99979 38296 ft 471 kts 274°
2026-05-05 11:35 53.06991 -22.10874 38297 ft 471 kts 274°
2026-05-05 11:36 53.07251 -22.21789 38302 ft 472 kts 274°
2026-05-05 11:36 53.07499 -22.32650 38299 ft 472 kts 274°
2026-05-05 11:37 53.07739 -22.43562 38301 ft 471 kts 274°
2026-05-05 11:37 53.07969 -22.54471 38302 ft 472 kts 274°
2026-05-05 11:38 53.08187 -22.65328 38300 ft 472 kts 274°
2026-05-05 11:38 53.08398 -22.76264 38299 ft 472 kts 274°
2026-05-05 11:39 53.08597 -22.87180 38303 ft 472 kts 274°
2026-05-05 11:39 53.08786 -22.98051 38307 ft 472 kts 274°
2026-05-05 11:40 53.08967 -23.08996 38305 ft 472 kts 273°
2026-05-05 11:40 53.09137 -23.19934 38310 ft 472 kts 273°
2026-05-05 11:41 53.09297 -23.30882 38309 ft 472 kts 273°
2026-05-05 11:41 53.09446 -23.41748 38311 ft 473 kts 273°
2026-05-05 11:42 53.09586 -23.52699 38313 ft 473 kts 273°
2026-05-05 11:42 53.09717 -23.63665 38313 ft 473 kts 273°
2026-05-05 11:43 53.09836 -23.74551 38310 ft 473 kts 273°
2026-05-05 11:43 53.09947 -23.85522 38319 ft 473 kts 273°
2026-05-05 11:44 53.10046 -23.96403 38315 ft 472 kts 273°
2026-05-05 11:44 53.10136 -24.07364 38321 ft 472 kts 273°
2026-05-05 11:45 53.10216 -24.18222 38310 ft 471 kts 273°
2026-05-05 11:45 53.10285 -24.29162 38323 ft 472 kts 273°
2026-05-05 11:46 53.10345 -24.40107 38327 ft 473 kts 273°
2026-05-05 11:46 53.10395 -24.50996 38324 ft 472 kts 272°
2026-05-05 11:47 53.10435 -24.61947 38320 ft 473 kts 272°
2026-05-05 11:47 53.10465 -24.72847 38318 ft 473 kts 272°
2026-05-05 11:48 53.10491 -24.89275 38323 ft 473 kts 272°
2026-05-05 11:48 53.10496 -25.00177 38323 ft 472 kts 272°
2026-05-05 11:49 53.10491 -25.11152 38322 ft 473 kts 272°
2026-05-05 11:49 53.10475 -25.22041 38319 ft 472 kts 272°
2026-05-05 11:50 53.10450 -25.32970 38322 ft 472 kts 272°
2026-05-05 11:50 53.10415 -25.43906 38326 ft 471 kts 272°
2026-05-05 11:51 53.10370 -25.54761 38328 ft 471 kts 272°
2026-05-05 11:51 53.10315 -25.65679 38327 ft 471 kts 272°
2026-05-05 11:52 53.10250 -25.76584 38331 ft 471 kts 272°
2026-05-05 11:52 53.10175 -25.87499 38326 ft 472 kts 272°
2026-05-05 11:53 53.10089 -25.98436 38330 ft 471 kts 272°
2026-05-05 11:53 53.09995 -26.09279 38332 ft 471 kts 272°
2026-05-05 11:54 53.09890 -26.20188 38322 ft 470 kts 272°
2026-05-05 11:54 53.09776 -26.31037 38325 ft 469 kts 272°
2026-05-05 11:55 53.09652 -26.41917 38328 ft 468 kts 272°
2026-05-05 11:55 53.09518 -26.52711 38330 ft 469 kts 272°
2026-05-05 11:56 53.09374 -26.63591 38329 ft 469 kts 271°
2026-05-05 11:56 53.09220 -26.74464 38331 ft 469 kts 271°
2026-05-05 11:57 53.09057 -26.85251 38334 ft 469 kts 271°
2026-05-05 11:57 53.08884 -26.96115 38333 ft 469 kts 271°
2026-05-05 11:58 53.08700 -27.06964 38337 ft 468 kts 271°
2026-05-05 11:58 53.08507 -27.17813 38340 ft 468 kts 271°
2026-05-05 11:59 53.08305 -27.28587 38337 ft 468 kts 271°
2026-05-05 11:59 53.08093 -27.39435 38340 ft 468 kts 271°
2026-05-05 12:00 53.07872 -27.50193 38341 ft 467 kts 271°
2026-05-05 12:00 53.07640 -27.60995 38345 ft 467 kts 271°
2026-05-05 12:01 53.07398 -27.71808 38340 ft 467 kts 271°
2026-05-05 12:01 53.07149 -27.82540 38340 ft 466 kts 271°
2026-05-05 12:02 53.06889 -27.93310 38341 ft 466 kts 271°
2026-05-05 12:02 53.06619 -28.04063 38335 ft 466 kts 271°
2026-05-05 12:03 53.06339 -28.14847 38339 ft 465 kts 271°
2026-05-05 12:03 53.06051 -28.25546 38334 ft 465 kts 271°
2026-05-05 12:04 53.05752 -28.36331 38335 ft 467 kts 271°
2026-05-05 12:04 53.05444 -28.47054 38351 ft 465 kts 271°
2026-05-05 12:05 53.05127 -28.57778 38340 ft 464 kts 271°
2026-05-05 12:05 53.04800 -28.68495 38346 ft 463 kts 271°
2026-05-05 12:06 53.04464 -28.79206 38333 ft 463 kts 271°
2026-05-05 12:06 53.04121 -28.89845 38342 ft 463 kts 270°
2026-05-05 12:07 53.03768 -29.00484 38344 ft 463 kts 270°
2026-05-05 12:07 53.03403 -29.11176 38343 ft 463 kts 270°
2026-05-05 12:08 53.03028 -29.21898 38334 ft 464 kts 270°
2026-05-05 12:08 53.02645 -29.32559 38337 ft 464 kts 270°
2026-05-05 12:09 53.02251 -29.43279 38338 ft 464 kts 270°
2026-05-05 12:09 53.01849 -29.53936 38336 ft 464 kts 270°
2026-05-05 12:10 53.01436 -29.64634 38331 ft 463 kts 270°
2026-05-05 12:10 53.01085 -29.73529 38328 ft 464 kts 270°
2026-05-05 12:11 53.00583 -29.85981 38331 ft 465 kts 270°
2026-05-05 12:11 53.00139 -29.96715 38332 ft 465 kts 270°
2026-05-05 12:12 53.00234 -30.05567 38332 ft 460 kts 277°
2026-05-05 12:12 53.00672 -30.16189 38332 ft 460 kts 277°
2026-05-05 12:13 53.01096 -30.26753 38327 ft 460 kts 277°
2026-05-05 12:13 53.01512 -30.37305 38325 ft 459 kts 277°
2026-05-05 12:14 53.01919 -30.47901 38332 ft 460 kts 277°
2026-05-05 12:14 53.02318 -30.58530 38317 ft 459 kts 277°
2026-05-05 12:15 53.02705 -30.69088 38322 ft 460 kts 276°
2026-05-05 12:15 53.03085 -30.79717 38318 ft 460 kts 276°
2026-05-05 12:16 53.03456 -30.90340 38311 ft 460 kts 276°
2026-05-05 12:16 53.03814 -31.00886 38310 ft 459 kts 276°
2026-05-05 12:17 53.04165 -31.11501 38310 ft 459 kts 276°
2026-05-05 12:17 53.04506 -31.22097 38313 ft 458 kts 276°
2026-05-05 12:18 53.04835 -31.32623 38305 ft 458 kts 275°
2026-05-05 12:18 53.05157 -31.43202 38308 ft 458 kts 275°
2026-05-05 12:19 53.05469 -31.53789 38308 ft 457 kts 275°
2026-05-05 12:19 53.05770 -31.64294 38300 ft 457 kts 275°
2026-05-05 12:20 53.06063 -31.74882 38298 ft 457 kts 275°
2026-05-05 12:20 53.06345 -31.85362 38298 ft 457 kts 275°
2026-05-05 12:21 53.06620 -31.95947 38295 ft 457 kts 274°
2026-05-05 12:21 53.06885 -32.06516 38293 ft 457 kts 274°
2026-05-05 12:22 53.07141 -32.17112 38287 ft 457 kts 274°
2026-05-05 12:22 53.07386 -32.27631 38288 ft 458 kts 274°
2026-05-05 12:23 53.07623 -32.38218 38286 ft 458 kts 273°
2026-05-05 12:23 53.07851 -32.48832 38286 ft 459 kts 273°
2026-05-05 12:24 53.08069 -32.59388 38278 ft 459 kts 273°
2026-05-05 12:24 53.08279 -32.70035 38275 ft 460 kts 272°
2026-05-05 12:25 53.08480 -32.80701 38275 ft 461 kts 272°
2026-05-05 12:25 53.08671 -32.91326 38273 ft 462 kts 272°
2026-05-05 12:26 53.08853 -33.02047 38271 ft 463 kts 272°
2026-05-05 12:26 53.09027 -33.12777 38267 ft 464 kts 272°
2026-05-05 12:27 53.09190 -33.23503 38268 ft 464 kts 271°
2026-05-05 12:27 53.09343 -33.34192 38263 ft 464 kts 271°
2026-05-05 12:28 53.09488 -33.44943 38261 ft 465 kts 271°
2026-05-05 12:28 53.09624 -33.55733 38258 ft 465 kts 271°
2026-05-05 12:29 53.09748 -33.66448 38261 ft 465 kts 270°
2026-05-05 12:29 53.09864 -33.77237 38252 ft 466 kts 270°
2026-05-05 12:30 53.09970 -33.87971 38251 ft 466 kts 270°
2026-05-05 12:30 53.10066 -33.98783 38253 ft 467 kts 270°
2026-05-05 12:31 53.10153 -34.09627 38247 ft 468 kts 269°
2026-05-05 12:31 53.10230 -34.20443 38242 ft 470 kts 269°
2026-05-05 12:32 53.10298 -34.31352 38241 ft 471 kts 269°
2026-05-05 12:32 53.10356 -34.42302 38241 ft 473 kts 269°
2026-05-05 12:33 53.10404 -34.53204 38233 ft 474 kts 268°
2026-05-05 12:33 53.10442 -34.64206 38231 ft 475 kts 268°
2026-05-05 12:34 53.10470 -34.75235 38220 ft 476 kts 268°
2026-05-05 12:34 53.10488 -34.86206 38221 ft 477 kts 268°
2026-05-05 12:35 53.10495 -34.97262 38223 ft 477 kts 268°
2026-05-05 12:35 53.10493 -35.08273 38216 ft 478 kts 267°
2026-05-05 12:36 53.10480 -35.19350 38209 ft 478 kts 267°
2026-05-05 12:36 53.10457 -35.30439 38205 ft 478 kts 267°
2026-05-05 12:37 53.10423 -35.41507 38197 ft 478 kts 267°
2026-05-05 12:37 53.10380 -35.52529 38190 ft 479 kts 266°
2026-05-05 12:38 53.10326 -35.63640 38186 ft 480 kts 266°
2026-05-05 12:38 53.10262 -35.74747 38183 ft 480 kts 266°
2026-05-05 12:39 53.10187 -35.85797 38180 ft 480 kts 266°
2026-05-05 12:39 53.10101 -35.96985 38269 ft 485 kts 266°
2026-05-05 12:40 53.10055 -36.02572 38547 ft 480 kts 266°
2026-05-05 12:40 53.10007 -36.08141 38829 ft 479 kts 266°
2026-05-05 12:40 53.09954 -36.13679 39051 ft 478 kts 266°
2026-05-05 12:40 53.09900 -36.19151 39144 ft 480 kts 266°
2026-05-05 12:41 53.09784 -36.30304 39142 ft 480 kts 266°
2026-05-05 12:41 53.09659 -36.41354 39135 ft 475 kts 265°
2026-05-05 12:42 53.09523 -36.52336 39130 ft 474 kts 265°
2026-05-05 12:42 53.09378 -36.63312 39129 ft 475 kts 265°
2026-05-05 12:43 53.09223 -36.74249 39129 ft 475 kts 265°
2026-05-05 12:43 53.09057 -36.85278 39132 ft 476 kts 265°
2026-05-05 12:44 53.08881 -36.96310 39135 ft 477 kts 265°
2026-05-05 12:44 53.08693 -37.07361 39133 ft 477 kts 265°
2026-05-05 12:45 53.08498 -37.18333 39131 ft 477 kts 265°
2026-05-05 12:45 53.08290 -37.29392 39124 ft 477 kts 265°
2026-05-05 12:46 53.08072 -37.40459 39125 ft 477 kts 265°
2026-05-05 12:46 53.07845 -37.51446 39120 ft 477 kts 264°
2026-05-05 12:47 53.07607 -37.62503 39118 ft 478 kts 264°
2026-05-05 12:47 53.07360 -37.73496 39112 ft 478 kts 264°
2026-05-05 12:48 53.07101 -37.84548 39116 ft 478 kts 264°
2026-05-05 12:48 53.06831 -37.95643 39114 ft 479 kts 264°
2026-05-05 12:49 53.06552 -38.06673 39111 ft 480 kts 264°
2026-05-05 12:49 53.06262 -38.17781 39110 ft 480 kts 264°
2026-05-05 12:50 53.05960 -38.28892 39113 ft 480 kts 264°
2026-05-05 12:50 53.05650 -38.39925 39111 ft 480 kts 264°
2026-05-05 12:51 53.05330 -38.50980 39117 ft 481 kts 264°
2026-05-05 12:51 53.04996 -38.62112 39113 ft 481 kts 264°
2026-05-05 12:52 53.04653 -38.73242 39113 ft 481 kts 263°
2026-05-05 12:52 53.04301 -38.84287 39113 ft 482 kts 263°
2026-05-05 12:53 53.03937 -38.95432 39110 ft 482 kts 263°
2026-05-05 12:53 53.03565 -39.06478 39111 ft 481 kts 263°
2026-05-05 12:54 53.02983 -39.23156 39112 ft 482 kts 263°
2026-05-05 12:55 53.02583 -39.34261 39110 ft 483 kts 263°
2026-05-05 12:55 53.02171 -39.45421 39106 ft 482 kts 263°
2026-05-05 12:56 53.01751 -39.56496 39102 ft 483 kts 263°
2026-05-05 12:56 53.01318 -39.67643 39101 ft 484 kts 263°
2026-05-05 12:57 53.00873 -39.78833 39099 ft 484 kts 263°
2026-05-05 12:57 53.00421 -39.89926 39108 ft 484 kts 263°
2026-05-05 12:58 52.99937 -40.01126 39103 ft 484 kts 260°
2026-05-05 12:58 52.99307 -40.12190 39097 ft 484 kts 262°
2026-05-05 12:59 52.98784 -40.21511 39096 ft 483 kts 261°
2026-05-05 12:59 52.98120 -40.32551 39098 ft 482 kts 261°
2026-05-05 13:00 52.97133 -40.49201 39096 ft 483 kts 261°
2026-05-05 13:01 52.95776 -40.71343 39090 ft 483 kts 261°
2026-05-05 13:01 52.95081 -40.82405 39090 ft 482 kts 261°
2026-05-05 13:02 52.94380 -40.93418 39088 ft 482 kts 260°
2026-05-05 13:02 52.93662 -41.04509 39084 ft 483 kts 260°
2026-05-05 13:03 52.92936 -41.15580 39085 ft 483 kts 260°
2026-05-05 13:03 52.92199 -41.26649 39079 ft 483 kts 260°
2026-05-05 13:04 52.91455 -41.37667 39086 ft 483 kts 260°
2026-05-05 13:04 52.90696 -41.48743 39072 ft 484 kts 260°
2026-05-05 13:05 52.89927 -41.59820 39074 ft 484 kts 260°
2026-05-05 13:05 52.89150 -41.70859 39073 ft 484 kts 259°
2026-05-05 13:06 52.88361 -41.81933 39067 ft 483 kts 259°
2026-05-05 13:06 52.87562 -41.92977 39068 ft 482 kts 259°
2026-05-05 13:07 52.86761 -42.03917 39063 ft 481 kts 259°
2026-05-05 13:07 52.85943 -42.14942 39058 ft 482 kts 259°
2026-05-05 13:08 52.85112 -42.26002 39052 ft 484 kts 259°
2026-05-05 13:08 52.84275 -42.37000 39053 ft 484 kts 259°
2026-05-05 13:09 52.83423 -42.48063 39051 ft 483 kts 259°
2026-05-05 13:09 52.82562 -42.59087 39044 ft 483 kts 259°
2026-05-05 13:10 52.81696 -42.70062 39036 ft 484 kts 259°
2026-05-05 13:10 52.80812 -42.81128 39041 ft 484 kts 258°
2026-05-05 13:11 52.79918 -42.92170 39036 ft 484 kts 258°
2026-05-05 13:11 52.79021 -43.03132 39030 ft 483 kts 258°
2026-05-05 13:12 52.78109 -43.14143 39028 ft 483 kts 258°
2026-05-05 13:12 52.77185 -43.25178 39024 ft 484 kts 258°
2026-05-05 13:13 52.76255 -43.36153 39017 ft 485 kts 258°
2026-05-05 13:13 52.75310 -43.47186 39011 ft 485 kts 258°
2026-05-05 13:14 52.74355 -43.58200 39010 ft 484 kts 258°
2026-05-05 13:14 52.73391 -43.69201 39008 ft 484 kts 258°
2026-05-05 13:15 52.72424 -43.80114 39005 ft 483 kts 258°
2026-05-05 13:15 52.71440 -43.91105 39002 ft 483 kts 258°
2026-05-05 13:16 52.70448 -44.02068 38998 ft 483 kts 257°
2026-05-05 13:16 52.69451 -44.12970 38991 ft 483 kts 257°
2026-05-05 13:17 52.68438 -44.23927 38986 ft 483 kts 257°
2026-05-05 13:17 52.67413 -44.34899 38983 ft 483 kts 257°
2026-05-05 13:18 52.66384 -44.45807 38976 ft 483 kts 257°
2026-05-05 13:18 52.65339 -44.56771 38968 ft 483 kts 257°
2026-05-05 13:19 52.64292 -44.67650 38974 ft 483 kts 257°
2026-05-05 13:19 52.63225 -44.78613 38960 ft 484 kts 257°
2026-05-05 13:20 52.62149 -44.89568 38960 ft 484 kts 257°
2026-05-05 13:20 52.61071 -45.00443 38959 ft 484 kts 257°
2026-05-05 13:21 52.59976 -45.11375 38948 ft 484 kts 257°
2026-05-05 13:21 52.58868 -45.22321 38942 ft 484 kts 257°
2026-05-05 13:22 52.57761 -45.33170 38936 ft 484 kts 257°
2026-05-05 13:22 52.56635 -45.44090 38930 ft 484 kts 257°
2026-05-05 13:23 52.55499 -45.55008 38926 ft 484 kts 257°
2026-05-05 13:23 52.54360 -45.65853 38921 ft 485 kts 257°
2026-05-05 13:24 52.53202 -45.76780 38911 ft 485 kts 257°
2026-05-05 13:24 52.52033 -45.87710 38904 ft 485 kts 257°
2026-05-05 13:25 52.50854 -45.98631 38903 ft 486 kts 256°
2026-05-05 13:25 52.49664 -46.09562 38892 ft 486 kts 256°
2026-05-05 13:26 52.48471 -46.20413 38887 ft 486 kts 256°
2026-05-05 13:26 52.47259 -46.31345 38886 ft 486 kts 256°
2026-05-05 13:27 52.46047 -46.42182 38880 ft 486 kts 256°
2026-05-05 13:27 52.44815 -46.53102 38868 ft 486 kts 256°
2026-05-05 13:28 52.43574 -46.64002 38866 ft 485 kts 256°
2026-05-05 13:28 52.42325 -46.74878 38862 ft 485 kts 256°
2026-05-05 13:29 52.41073 -46.85697 38859 ft 485 kts 256°
2026-05-05 13:29 52.39806 -46.96545 38853 ft 484 kts 256°
2026-05-05 13:30 52.38531 -47.07377 38842 ft 484 kts 256°
2026-05-05 13:30 52.37244 -47.18209 38838 ft 484 kts 256°
2026-05-05 13:31 52.35952 -47.29004 38831 ft 484 kts 256°
2026-05-05 13:31 52.34656 -47.39742 38825 ft 483 kts 256°
2026-05-05 13:32 52.33342 -47.50540 38820 ft 483 kts 256°
2026-05-05 13:32 52.32019 -47.61333 38816 ft 483 kts 256°
2026-05-05 13:33 52.30692 -47.72060 38809 ft 484 kts 256°
2026-05-05 13:33 52.29346 -47.82863 38808 ft 484 kts 256°
2026-05-05 13:34 52.28003 -47.93560 38799 ft 483 kts 255°
2026-05-05 13:34 52.26640 -48.04323 38795 ft 483 kts 255°
2026-05-05 13:35 52.25269 -48.15070 38788 ft 482 kts 255°
2026-05-05 13:35 52.23900 -48.25718 38782 ft 482 kts 255°
2026-05-05 13:36 52.22511 -48.36443 38783 ft 482 kts 255°
2026-05-05 13:36 52.21113 -48.47150 38774 ft 482 kts 255°
2026-05-05 13:37 52.19716 -48.57776 38773 ft 482 kts 255°
2026-05-05 13:37 52.18301 -48.68452 38763 ft 482 kts 255°
2026-05-05 13:38 52.16873 -48.79148 38764 ft 481 kts 255°
2026-05-05 13:38 52.15449 -48.89738 38756 ft 481 kts 255°
2026-05-05 13:39 52.14005 -49.00397 38752 ft 481 kts 255°
2026-05-05 13:39 52.12561 -49.10982 38750 ft 481 kts 255°
2026-05-05 13:40 52.11097 -49.21633 38741 ft 481 kts 255°
2026-05-05 13:40 52.09629 -49.32244 38734 ft 480 kts 255°
2026-05-05 13:41 52.08160 -49.42777 38728 ft 480 kts 255°
2026-05-05 13:41 52.06672 -49.53377 38727 ft 480 kts 254°
2026-05-05 13:42 52.05176 -49.63957 38725 ft 480 kts 254°
2026-05-05 13:42 52.03680 -49.74464 38718 ft 480 kts 254°
2026-05-05 13:43 52.02166 -49.85027 38716 ft 480 kts 254°
2026-05-05 13:43 52.00639 -49.95604 38710 ft 480 kts 254°
2026-05-05 13:44 51.98614 -50.05791 38709 ft 477 kts 246°
2026-05-05 13:44 51.96196 -50.15830 38701 ft 477 kts 246°
2026-05-05 13:45 51.94181 -50.24170 38697 ft 477 kts 246°
2026-05-05 13:45 51.91352 -50.35820 38690 ft 477 kts 246°
2026-05-05 13:46 51.88926 -50.45765 38692 ft 477 kts 246°
2026-05-05 13:46 51.86475 -50.55760 38681 ft 477 kts 246°
2026-05-05 13:47 51.84434 -50.64055 38676 ft 476 kts 246°
2026-05-05 13:47 51.81969 -50.74030 38674 ft 476 kts 246°
2026-05-05 13:48 51.79516 -50.83908 38675 ft 476 kts 246°
2026-05-05 13:48 51.77031 -50.93873 38667 ft 476 kts 246°
2026-05-05 13:49 51.74564 -51.03724 38665 ft 476 kts 246°
2026-05-05 13:49 51.72072 -51.13628 38665 ft 476 kts 246°
2026-05-05 13:50 51.69573 -51.23517 38665 ft 476 kts 246°
2026-05-05 13:50 51.67080 -51.33338 38661 ft 476 kts 246°
2026-05-05 13:51 51.64560 -51.43220 38660 ft 476 kts 246°
2026-05-05 13:51 51.62036 -51.53080 38657 ft 475 kts 246°
2026-05-05 13:52 51.59521 -51.62854 38649 ft 475 kts 246°
2026-05-05 13:52 51.56980 -51.72692 38648 ft 475 kts 246°
2026-05-05 13:53 51.54452 -51.82433 38648 ft 474 kts 246°
2026-05-05 13:53 51.51903 -51.92219 38646 ft 474 kts 246°
2026-05-05 13:54 51.49347 -52.01986 38644 ft 474 kts 246°
2026-05-05 13:54 51.46784 -52.11739 38643 ft 473 kts 246°
2026-05-05 13:55 51.44229 -52.21420 38643 ft 473 kts 246°
2026-05-05 13:55 51.41650 -52.31146 38639 ft 473 kts 246°
2026-05-05 13:56 51.39060 -52.40879 38636 ft 473 kts 246°
2026-05-05 13:56 51.36477 -52.50541 38637 ft 474 kts 246°
2026-05-05 13:57 51.33880 -52.60218 38636 ft 474 kts 246°
2026-05-05 13:57 51.31264 -52.69920 38635 ft 474 kts 246°
2026-05-05 13:58 51.28659 -52.79543 38634 ft 474 kts 246°
2026-05-05 13:58 51.26034 -52.89200 38633 ft 474 kts 245°
2026-05-05 13:59 51.22093 -53.03625 38632 ft 474 kts 245°
2026-05-05 14:00 51.18112 -53.18102 38631 ft 474 kts 245°
2026-05-05 14:00 51.15645 -53.27786 38629 ft 474 kts 249°
2026-05-05 14:01 51.13386 -53.37670 38626 ft 474 kts 249°
2026-05-05 14:01 51.11116 -53.47498 38622 ft 474 kts 249°
2026-05-05 14:02 51.08836 -53.57359 38625 ft 475 kts 249°
2026-05-05 14:02 51.06536 -53.67239 38624 ft 475 kts 249°
2026-05-05 14:03 51.04253 -53.77014 38627 ft 474 kts 249°
2026-05-05 14:03 51.01947 -53.86836 38619 ft 474 kts 249°
2026-05-05 14:04 50.99629 -53.96666 38618 ft 474 kts 249°
2026-05-05 14:04 50.97301 -54.06495 38623 ft 474 kts 249°
2026-05-05 14:05 50.94981 -54.16244 38623 ft 474 kts 249°
2026-05-05 14:05 50.92639 -54.26039 38624 ft 474 kts 249°
2026-05-05 14:06 50.90309 -54.35743 38622 ft 474 kts 249°
2026-05-05 14:06 50.87930 -54.45605 38627 ft 474 kts 249°
2026-05-05 14:07 50.85570 -54.55348 38628 ft 475 kts 249°
2026-05-05 14:07 50.83208 -54.65056 38623 ft 474 kts 249°
2026-05-05 14:08 50.80822 -54.74817 38621 ft 475 kts 249°
2026-05-05 14:08 50.78447 -54.84490 38626 ft 474 kts 248°
2026-05-05 14:09 50.76055 -54.94192 38628 ft 474 kts 248°
2026-05-05 14:09 50.73652 -55.03894 38631 ft 474 kts 248°
2026-05-05 14:10 50.71248 -55.13555 38633 ft 474 kts 248°
2026-05-05 14:10 50.68825 -55.23256 38632 ft 474 kts 248°
2026-05-05 14:11 50.66410 -55.32880 38632 ft 474 kts 248°
2026-05-05 14:11 50.63973 -55.42550 38630 ft 475 kts 248°
2026-05-05 14:12 50.61520 -55.52244 38628 ft 476 kts 248°
2026-05-05 14:12 50.59061 -55.61916 38625 ft 478 kts 248°
2026-05-05 14:13 50.56581 -55.71630 38627 ft 480 kts 248°
2026-05-05 14:13 50.54077 -55.81396 38624 ft 480 kts 248°
2026-05-05 14:14 50.51574 -55.91116 38621 ft 481 kts 248°
2026-05-05 14:14 50.49054 -56.00863 38621 ft 482 kts 248°
2026-05-05 14:15 50.46517 -56.10629 38614 ft 483 kts 248°
2026-05-05 14:15 50.43986 -56.20333 38616 ft 483 kts 247°
2026-05-05 14:16 50.41425 -56.30110 38619 ft 483 kts 247°
2026-05-05 14:16 50.38860 -56.39858 38618 ft 481 kts 248°
2026-05-05 14:17 50.36317 -56.49486 38622 ft 478 kts 248°
2026-05-05 14:17 50.33771 -56.59080 38619 ft 475 kts 248°
2026-05-05 14:18 50.31249 -56.68549 38619 ft 472 kts 248°
2026-05-05 14:18 50.28732 -56.77959 38623 ft 469 kts 249°
2026-05-05 14:19 50.26202 -56.87379 38630 ft 467 kts 249°
2026-05-05 14:19 50.23693 -56.96682 38632 ft 465 kts 249°
2026-05-05 14:20 50.21172 -57.05994 38642 ft 463 kts 249°
2026-05-05 14:20 50.18665 -57.15217 38645 ft 461 kts 249°
2026-05-05 14:21 50.16170 -57.24358 38659 ft 460 kts 249°
2026-05-05 14:21 50.13651 -57.33553 38672 ft 460 kts 248°
2026-05-05 14:22 50.11128 -57.42726 38684 ft 461 kts 248°
2026-05-05 14:22 50.08589 -57.51922 38698 ft 463 kts 248°
2026-05-05 14:23 50.06031 -57.61149 38701 ft 464 kts 248°
2026-05-05 14:23 50.03474 -57.70335 38709 ft 466 kts 248°
2026-05-05 14:24 50.00888 -57.79591 38716 ft 467 kts 247°
2026-05-05 14:24 49.98298 -57.88825 38720 ft 468 kts 247°
2026-05-05 14:25 49.95676 -57.98136 38724 ft 469 kts 247°
2026-05-05 14:25 49.93060 -58.07388 38728 ft 470 kts 247°
2026-05-05 14:26 49.90415 -58.16706 38724 ft 471 kts 247°
2026-05-05 14:26 49.87760 -58.26026 38729 ft 472 kts 247°
2026-05-05 14:27 49.85100 -58.35327 38732 ft 472 kts 247°
2026-05-05 14:27 49.82451 -58.44549 38731 ft 471 kts 247°
2026-05-05 14:28 49.79782 -58.53811 38732 ft 471 kts 247°
2026-05-05 14:28 49.77099 -58.63081 38736 ft 471 kts 247°
2026-05-05 14:29 49.74406 -58.72351 38734 ft 471 kts 247°
2026-05-05 14:29 49.71726 -58.81540 38734 ft 471 kts 247°
2026-05-05 14:30 49.69019 -58.90789 38744 ft 471 kts 247°
2026-05-05 14:30 49.66315 -58.99989 38745 ft 471 kts 247°
2026-05-05 14:31 49.63601 -59.09191 38747 ft 470 kts 247°
2026-05-05 14:31 49.60882 -59.18374 38753 ft 469 kts 247°
2026-05-05 14:32 49.58181 -59.27462 38754 ft 468 kts 247°
2026-05-05 14:32 49.55919 -59.35045 38763 ft 467 kts 247°
2026-05-05 14:33 49.53200 -59.44133 38763 ft 466 kts 247°
2026-05-05 14:33 49.50491 -59.53150 38760 ft 465 kts 247°
2026-05-05 14:34 49.47777 -59.62154 38764 ft 464 kts 247°
2026-05-05 14:34 49.45044 -59.71184 38761 ft 463 kts 247°
2026-05-05 14:35 49.42334 -59.80109 38759 ft 463 kts 247°
2026-05-05 14:35 49.39606 -59.89056 38768 ft 462 kts 247°
2026-05-05 14:36 49.36869 -59.98004 38766 ft 462 kts 247°
2026-05-05 14:36 49.34140 -60.06891 38763 ft 462 kts 247°
2026-05-05 14:37 49.31388 -60.15822 38775 ft 463 kts 247°
2026-05-05 14:37 49.28630 -60.24740 38770 ft 463 kts 247°
2026-05-05 14:38 49.25860 -60.33666 38774 ft 463 kts 246°
2026-05-05 14:38 49.23103 -60.42518 38778 ft 463 kts 246°
2026-05-05 14:39 49.20316 -60.51434 38781 ft 464 kts 246°
2026-05-05 14:39 49.17534 -60.60301 38779 ft 464 kts 246°
2026-05-05 14:40 49.14725 -60.69221 38780 ft 464 kts 246°
2026-05-05 14:40 49.11932 -60.78062 38788 ft 464 kts 246°
2026-05-05 14:41 49.09110 -60.86959 38789 ft 464 kts 246°
2026-05-05 14:41 49.06288 -60.95829 38790 ft 464 kts 246°
2026-05-05 14:42 49.03461 -61.04680 38787 ft 464 kts 246°
2026-05-05 14:42 49.00636 -61.13495 38791 ft 464 kts 246°
2026-05-05 14:43 48.97794 -61.22333 38793 ft 465 kts 246°
2026-05-05 14:43 48.94951 -61.31140 38794 ft 465 kts 246°
2026-05-05 14:44 48.92086 -61.39988 38796 ft 466 kts 246°
2026-05-05 14:44 48.89207 -61.48846 38795 ft 466 kts 245°
2026-05-05 14:45 48.86334 -61.57653 38793 ft 467 kts 245°
2026-05-05 14:45 48.83436 -61.66509 38797 ft 467 kts 245°
2026-05-05 14:46 48.80527 -61.75366 38796 ft 468 kts 245°
2026-05-05 14:46 48.77635 -61.84140 38794 ft 467 kts 245°
2026-05-05 14:47 48.74719 -61.92956 38796 ft 466 kts 245°
2026-05-05 14:47 48.71806 -62.01734 38795 ft 465 kts 245°
2026-05-05 14:48 48.68909 -62.10435 38797 ft 465 kts 245°
2026-05-05 14:48 48.65987 -62.19179 38800 ft 464 kts 245°
2026-05-05 14:49 48.63084 -62.27838 38799 ft 463 kts 245°
2026-05-05 14:49 48.60154 -62.36547 38799 ft 463 kts 245°
2026-05-05 14:50 48.57239 -62.45182 38796 ft 462 kts 245°
2026-05-05 14:50 48.54309 -62.53831 38801 ft 462 kts 245°
2026-05-05 14:51 48.51383 -62.62443 38798 ft 461 kts 245°
2026-05-05 14:51 48.48465 -62.70998 38796 ft 460 kts 245°
2026-05-05 14:52 48.45535 -62.79562 38799 ft 459 kts 245°
2026-05-05 14:52 48.42606 -62.88096 38795 ft 457 kts 245°
2026-05-05 14:53 48.39673 -62.96612 38793 ft 457 kts 245°
2026-05-05 14:53 48.36767 -63.05023 38795 ft 455 kts 245°
2026-05-05 14:54 48.33834 -63.13484 38791 ft 455 kts 245°
2026-05-05 14:54 48.30904 -63.21908 38791 ft 455 kts 245°
2026-05-05 14:55 48.27978 -63.30296 38789 ft 454 kts 245°
2026-05-05 14:55 48.25040 -63.38688 38787 ft 453 kts 245°
2026-05-05 14:56 48.22102 -63.47054 38782 ft 453 kts 245°
2026-05-05 14:56 48.19174 -63.55367 38790 ft 452 kts 245°
2026-05-05 14:57 48.16229 -63.63699 38790 ft 451 kts 244°
2026-05-05 14:57 48.13296 -63.71972 38784 ft 450 kts 244°
2026-05-05 14:58 48.10325 -63.80324 38778 ft 450 kts 244°
2026-05-05 14:58 48.07388 -63.88556 38771 ft 450 kts 244°
2026-05-05 14:59 48.04433 -63.96813 38772 ft 449 kts 244°
2026-05-05 14:59 48.01476 -64.05047 38772 ft 449 kts 244°
2026-05-05 15:00 47.99015 -64.11883 38768 ft 449 kts 244°
2026-05-05 15:00 47.95565 -64.21433 38768 ft 448 kts 244°
2026-05-05 15:01 47.92612 -64.29582 38769 ft 448 kts 244°
2026-05-05 15:01 47.89638 -64.37763 38766 ft 449 kts 244°
2026-05-05 15:02 47.86660 -64.45927 38767 ft 449 kts 244°
2026-05-05 15:02 47.83664 -64.54117 38762 ft 450 kts 244°
2026-05-05 15:03 47.80659 -64.62306 38760 ft 450 kts 243°
2026-05-05 15:03 47.77672 -64.70424 38749 ft 448 kts 243°
2026-05-05 15:04 47.74669 -64.78556 38741 ft 448 kts 243°
2026-05-05 15:04 47.71657 -64.86689 38775 ft 451 kts 243°
2026-05-05 15:05 47.67102 -64.98943 38759 ft 453 kts 243°
2026-05-05 15:06 47.64068 -65.07073 38759 ft 454 kts 243°
2026-05-05 15:06 47.60991 -65.15291 38752 ft 454 kts 243°
2026-05-05 15:07 47.57929 -65.23445 38760 ft 454 kts 243°
2026-05-05 15:07 47.54865 -65.31581 38753 ft 454 kts 243°
2026-05-05 15:08 47.51775 -65.39761 38750 ft 454 kts 243°
2026-05-05 15:08 47.48694 -65.47890 38746 ft 453 kts 243°
2026-05-05 15:09 47.45623 -65.55969 38745 ft 453 kts 243°
2026-05-05 15:09 47.42529 -65.64084 38724 ft 452 kts 243°
2026-05-05 15:10 47.39441 -65.72162 38727 ft 450 kts 242°
2026-05-05 15:10 47.36363 -65.80185 38735 ft 449 kts 242°
2026-05-05 15:11 47.33283 -65.88192 38739 ft 448 kts 242°
2026-05-05 15:11 47.30222 -65.96125 38745 ft 447 kts 242°
2026-05-05 15:12 47.27149 -66.04065 38742 ft 446 kts 242°
2026-05-05 15:12 47.24068 -66.12006 38744 ft 446 kts 242°
2026-05-05 15:13 47.20976 -66.19949 38743 ft 447 kts 242°
2026-05-05 15:13 47.17872 -66.27898 38740 ft 447 kts 242°
2026-05-05 15:14 47.14796 -66.35754 38745 ft 446 kts 242°
2026-05-05 15:14 47.11677 -66.43697 38736 ft 447 kts 242°
2026-05-05 15:15 47.08583 -66.51555 38741 ft 447 kts 242°
2026-05-05 15:15 47.05983 -66.58137 38742 ft 447 kts 242°
2026-05-05 15:16 47.02336 -66.67348 38741 ft 448 kts 242°
2026-05-05 15:16 46.99712 -66.73953 38745 ft 447 kts 242°
2026-05-05 15:17 46.96552 -66.81889 38741 ft 447 kts 242°
2026-05-05 15:17 46.93421 -66.89728 38748 ft 447 kts 242°
2026-05-05 15:18 46.90283 -66.97560 38741 ft 446 kts 242°
2026-05-05 15:18 46.87346 -67.05510 38766 ft 443 kts 251°
2026-05-05 15:19 46.85571 -67.14117 38755 ft 444 kts 255°
2026-05-05 15:19 46.83884 -67.22809 38752 ft 444 kts 255°
2026-05-05 15:20 46.82207 -67.31423 38751 ft 443 kts 255°
2026-05-05 15:20 46.80500 -67.40145 38743 ft 442 kts 255°
2026-05-05 15:21 46.78802 -67.48786 38744 ft 441 kts 255°
2026-05-05 15:21 46.77110 -67.57353 38738 ft 440 kts 254°
2026-05-05 15:22 46.75399 -67.65981 38730 ft 439 kts 254°
2026-05-05 15:22 46.73688 -67.74572 38726 ft 439 kts 254°
2026-05-05 15:23 46.71998 -67.83017 38722 ft 439 kts 254°
2026-05-05 15:23 46.70269 -67.91625 38718 ft 438 kts 254°
2026-05-05 15:24 46.68548 -68.00156 38720 ft 438 kts 254°
2026-05-05 15:24 46.66814 -68.08710 38720 ft 437 kts 254°
2026-05-05 15:25 46.65096 -68.17151 38722 ft 436 kts 254°
2026-05-05 15:25 46.63360 -68.25644 38719 ft 436 kts 254°
2026-05-05 15:26 46.61626 -68.34089 38717 ft 435 kts 253°
2026-05-05 15:26 46.59897 -68.42478 38714 ft 436 kts 253°
2026-05-05 15:27 46.58144 -68.50947 38712 ft 435 kts 253°
2026-05-05 15:27 46.56400 -68.59335 38703 ft 435 kts 253°
2026-05-05 15:28 46.54637 -68.67784 38702 ft 434 kts 253°
2026-05-05 15:28 46.52886 -68.76137 38698 ft 434 kts 253°
2026-05-05 15:29 46.51123 -68.84511 38696 ft 434 kts 253°
2026-05-05 15:29 46.49352 -68.92888 38698 ft 434 kts 253°
2026-05-05 15:30 46.47579 -69.01246 38695 ft 433 kts 253°
2026-05-05 15:30 46.45796 -69.09610 38696 ft 433 kts 253°
2026-05-05 15:31 46.44008 -69.17969 38693 ft 433 kts 253°
2026-05-05 15:31 46.42224 -69.26275 38694 ft 432 kts 253°
2026-05-05 15:32 46.40436 -69.34567 38693 ft 431 kts 253°
2026-05-05 15:32 46.38633 -69.42891 38691 ft 431 kts 253°
2026-05-05 15:33 46.36837 -69.51151 38690 ft 431 kts 253°
2026-05-05 15:33 46.35041 -69.59382 38691 ft 431 kts 252°
2026-05-05 15:34 46.33227 -69.67660 38690 ft 430 kts 252°
2026-05-05 15:34 46.31418 -69.75880 38690 ft 430 kts 252°
2026-05-05 15:35 46.29596 -69.84132 38687 ft 430 kts 252°
2026-05-05 15:35 46.27763 -69.92396 38687 ft 430 kts 252°
2026-05-05 15:36 46.25931 -70.00625 38687 ft 429 kts 252°
2026-05-05 15:36 46.24093 -70.08852 38685 ft 429 kts 252°
2026-05-05 15:37 46.22260 -70.17025 38686 ft 428 kts 252°
2026-05-05 15:37 46.20423 -70.25181 38687 ft 428 kts 252°
2026-05-05 15:38 46.18573 -70.33365 38687 ft 428 kts 251°
2026-05-05 15:38 46.16728 -70.41495 38688 ft 428 kts 251°
2026-05-05 15:39 46.14869 -70.49653 38692 ft 427 kts 251°
2026-05-05 15:39 46.13002 -70.57819 38688 ft 427 kts 251°
2026-05-05 15:40 46.11143 -70.65919 38695 ft 427 kts 251°
2026-05-05 15:40 46.09272 -70.74043 38693 ft 427 kts 251°
2026-05-05 15:41 46.07391 -70.82177 38694 ft 426 kts 251°
2026-05-05 15:41 46.05526 -70.90212 38696 ft 426 kts 251°
2026-05-05 15:42 46.03647 -70.98277 38696 ft 425 kts 251°
2026-05-05 15:42 46.01751 -71.06383 38702 ft 424 kts 251°
2026-05-05 15:43 45.99876 -71.14375 38701 ft 424 kts 250°
2026-05-05 15:43 45.97984 -71.22405 38700 ft 424 kts 250°
2026-05-05 15:44 45.96087 -71.30431 38698 ft 423 kts 250°
2026-05-05 15:44 45.94176 -71.38484 38700 ft 423 kts 250°
2026-05-05 15:45 45.92593 -71.45134 38707 ft 423 kts 250°
2026-05-05 15:45 45.90683 -71.53132 38706 ft 422 kts 250°
2026-05-05 15:46 45.88783 -71.61058 38709 ft 422 kts 250°
2026-05-05 15:46 45.86871 -71.69005 38701 ft 422 kts 250°
2026-05-05 15:47 45.84949 -71.76968 38702 ft 422 kts 249°
2026-05-05 15:47 45.83020 -71.84927 38702 ft 421 kts 249°
2026-05-05 15:48 45.81097 -71.92834 38697 ft 422 kts 249°
2026-05-05 15:48 45.79169 -72.00734 38697 ft 422 kts 249°
2026-05-05 15:49 45.77221 -72.08690 38691 ft 422 kts 249°
2026-05-05 15:49 45.75272 -72.16621 38684 ft 422 kts 249°
2026-05-05 15:50 45.73321 -72.24534 38682 ft 421 kts 249°
2026-05-05 15:50 45.71365 -72.32436 38676 ft 421 kts 249°
2026-05-05 15:51 45.69416 -72.40287 38676 ft 420 kts 249°
2026-05-05 15:51 45.67450 -72.48177 38673 ft 421 kts 249°
2026-05-05 15:52 45.65489 -72.56018 38674 ft 420 kts 249°
2026-05-05 15:52 45.63511 -72.63902 38673 ft 420 kts 248°
2026-05-05 15:53 45.61746 -72.71841 38675 ft 423 kts 257°
2026-05-05 15:53 45.61139 -72.80354 38666 ft 426 kts 262°
2026-05-05 15:54 45.60685 -72.88840 38670 ft 427 kts 262°
2026-05-05 15:54 45.60243 -72.97296 38665 ft 428 kts 262°
2026-05-05 15:55 45.59784 -73.05795 38656 ft 428 kts 262°
2026-05-05 15:55 45.59322 -73.14308 38646 ft 429 kts 262°
2026-05-05 15:56 45.58886 -73.22193 38642 ft 431 kts 262°
2026-05-05 15:56 45.58399 -73.30907 38640 ft 432 kts 262°
2026-05-05 15:57 45.57916 -73.39434 38644 ft 433 kts 262°
2026-05-05 15:57 45.57427 -73.47937 38637 ft 433 kts 262°
2026-05-05 15:58 45.56926 -73.56559 38633 ft 432 kts 262°
2026-05-05 15:58 45.56423 -73.65074 38636 ft 432 kts 262°
2026-05-05 15:59 45.55913 -73.73629 38637 ft 433 kts 262°
2026-05-05 15:59 45.55396 -73.82184 38636 ft 433 kts 262°
2026-05-05 16:00 45.54871 -73.90755 38636 ft 432 kts 262°
2026-05-05 16:00 45.54346 -73.99232 38625 ft 430 kts 263°
2026-05-05 16:01 45.53811 -74.07752 38625 ft 430 kts 263°
2026-05-05 16:01 45.53275 -74.16192 38627 ft 428 kts 263°
2026-05-05 16:02 45.52727 -74.24731 38624 ft 426 kts 263°
2026-05-05 16:02 45.52181 -74.33131 38620 ft 425 kts 263°
2026-05-05 16:03 45.51632 -74.41488 38618 ft 424 kts 263°
2026-05-05 16:03 45.50823 -74.49827 38608 ft 422 kts 257°
2026-05-05 16:04 45.49699 -74.58000 38608 ft 419 kts 258°
2026-05-05 16:04 45.48561 -74.66131 38620 ft 420 kts 258°
2026-05-05 16:05 45.47401 -74.74394 38606 ft 421 kts 258°
2026-05-05 16:05 45.46250 -74.82549 38611 ft 421 kts 258°
2026-05-05 16:06 45.45085 -74.90752 38607 ft 421 kts 257°
2026-05-05 16:06 45.43936 -74.98811 38609 ft 421 kts 257°
2026-05-05 16:07 45.42767 -75.06956 38615 ft 422 kts 257°
2026-05-05 16:07 45.41571 -75.15178 38613 ft 422 kts 257°
2026-05-05 16:08 45.40383 -75.23336 38611 ft 423 kts 257°
2026-05-05 16:08 45.39181 -75.31529 38615 ft 423 kts 257°
2026-05-05 16:09 45.37973 -75.39728 38609 ft 424 kts 257°
2026-05-05 16:09 45.36773 -75.47821 38605 ft 423 kts 257°
2026-05-05 16:10 45.35542 -75.56088 38595 ft 424 kts 257°
2026-05-05 16:10 45.34316 -75.64277 38599 ft 423 kts 257°
2026-05-05 16:11 45.33086 -75.72445 38597 ft 424 kts 257°
2026-05-05 16:12 45.30602 -75.88822 38599 ft 424 kts 257°
2026-05-05 16:13 45.27668 -76.07952 38608 ft 424 kts 257°
2026-05-05 16:13 45.26413 -76.16068 38610 ft 424 kts 257°
2026-05-05 16:14 45.23854 -76.32487 38614 ft 424 kts 257°
2026-05-05 16:15 45.21272 -76.48884 38613 ft 426 kts 257°
2026-05-05 16:16 45.18670 -76.65254 38622 ft 427 kts 256°
2026-05-05 16:17 45.16679 -76.77668 38623 ft 428 kts 257°
2026-05-05 16:18 45.14683 -76.90020 38621 ft 429 kts 257°
2026-05-05 16:19 45.12675 -77.02356 38617 ft 430 kts 257°
2026-05-05 16:19 45.10648 -77.14719 38624 ft 431 kts 257°
2026-05-05 16:20 45.07909 -77.31284 38624 ft 431 kts 257°
2026-05-05 16:22 45.04453 -77.51953 38632 ft 430 kts 257°
2026-05-05 16:23 45.01681 -77.68357 38628 ft 429 kts 257°
2026-05-05 16:23 44.99589 -77.80636 38634 ft 428 kts 257°
2026-05-05 16:24 44.98190 -77.88802 38640 ft 427 kts 257°
2026-05-05 16:25 44.96087 -78.01002 38645 ft 427 kts 257°
2026-05-05 16:25 44.93966 -78.13223 38655 ft 427 kts 257°
2026-05-05 16:26 44.91146 -78.29346 38668 ft 427 kts 257°
2026-05-05 16:27 44.89712 -78.37490 38668 ft 427 kts 257°
2026-05-05 16:27 44.88280 -78.45584 38670 ft 427 kts 257°
2026-05-05 16:28 44.86847 -78.53657 38647 ft 421 kts 255°
2026-05-05 16:28 44.86143 -78.57603 38666 ft 408 kts 255°
2026-05-05 16:28 44.85441 -78.61519 38662 ft 404 kts 255°
2026-05-05 16:29 44.84050 -78.69279 38673 ft 408 kts 255°
2026-05-05 16:29 44.82651 -78.77053 38684 ft 411 kts 255°
2026-05-05 16:30 44.81248 -78.84812 38690 ft 411 kts 255°
2026-05-05 16:30 44.79837 -78.92584 38699 ft 412 kts 255°
2026-05-05 16:31 44.78420 -79.00356 38710 ft 412 kts 255°
2026-05-05 16:31 44.76985 -79.08192 38714 ft 413 kts 254°
2026-05-05 16:32 44.75554 -79.15975 38721 ft 413 kts 254°
2026-05-05 16:32 44.74101 -79.23844 38727 ft 413 kts 254°
2026-05-05 16:33 44.72655 -79.31644 38727 ft 414 kts 254°
2026-05-05 16:33 44.71212 -79.39393 38731 ft 414 kts 254°
2026-05-05 16:34 44.69748 -79.47225 38730 ft 414 kts 254°
2026-05-05 16:34 44.68271 -79.55091 38733 ft 415 kts 254°
2026-05-05 16:35 44.66800 -79.62893 38730 ft 415 kts 254°
2026-05-05 16:35 44.65309 -79.70769 38732 ft 416 kts 254°
2026-05-05 16:36 44.64065 -79.77315 38737 ft 416 kts 254°
2026-05-05 16:36 44.62574 -79.85131 38738 ft 416 kts 254°
2026-05-05 16:37 44.61060 -79.93037 38740 ft 417 kts 254°
2026-05-05 16:37 44.59556 -80.00857 38738 ft 418 kts 254°
2026-05-05 16:38 44.58021 -80.08806 38738 ft 418 kts 254°
2026-05-05 16:38 44.56486 -80.16724 38742 ft 419 kts 254°
2026-05-05 16:39 44.54958 -80.24574 38742 ft 419 kts 254°
2026-05-05 16:39 44.53417 -80.32455 38744 ft 420 kts 254°
2026-05-05 16:40 44.51875 -80.40313 38751 ft 420 kts 254°
2026-05-05 16:40 44.50313 -80.48238 38747 ft 420 kts 254°
2026-05-05 16:41 44.48760 -80.56086 38749 ft 420 kts 254°
2026-05-05 16:41 44.47190 -80.63988 38750 ft 420 kts 254°
2026-05-05 16:42 44.45615 -80.71887 38749 ft 421 kts 254°
2026-05-05 16:42 44.44041 -80.79746 38757 ft 421 kts 254°
2026-05-05 16:43 44.42444 -80.87691 38759 ft 422 kts 254°
2026-05-05 16:43 44.40858 -80.95548 38762 ft 421 kts 254°
2026-05-05 16:44 44.39248 -81.03493 38761 ft 421 kts 254°
2026-05-05 16:44 44.37639 -81.11405 38761 ft 421 kts 254°
2026-05-05 16:45 44.36030 -81.19280 38770 ft 421 kts 254°
2026-05-05 16:45 44.34426 -81.27105 38773 ft 421 kts 254°
2026-05-05 16:46 44.32798 -81.35016 38777 ft 421 kts 254°
2026-05-05 16:46 44.31195 -81.42773 38778 ft 421 kts 254°
2026-05-05 16:47 44.29548 -81.50713 38783 ft 421 kts 254°
2026-05-05 16:47 44.27908 -81.58589 38786 ft 422 kts 254°
2026-05-05 16:48 44.26263 -81.66456 38786 ft 421 kts 254°
2026-05-05 16:48 44.24633 -81.74223 38794 ft 421 kts 254°
2026-05-05 16:49 44.22960 -81.82169 38797 ft 421 kts 254°
2026-05-05 16:49 44.21307 -81.89983 38798 ft 420 kts 254°
2026-05-05 16:50 44.19647 -81.97803 38803 ft 420 kts 254°
2026-05-05 16:50 44.17987 -82.05597 38799 ft 420 kts 254°
2026-05-05 16:51 44.16330 -82.13347 38799 ft 420 kts 254°
2026-05-05 16:51 44.14658 -82.21135 38794 ft 420 kts 254°
2026-05-05 16:52 44.12975 -82.28943 38795 ft 420 kts 254°
2026-05-05 16:52 44.11293 -82.36722 38782 ft 420 kts 254°
2026-05-05 16:53 44.09608 -82.44485 38781 ft 420 kts 254°
2026-05-05 16:53 44.07890 -82.52370 38779 ft 420 kts 254°
2026-05-05 16:54 44.06193 -82.60130 38774 ft 420 kts 254°
2026-05-05 16:54 44.04489 -82.67897 38776 ft 420 kts 254°
2026-05-05 16:55 44.02774 -82.75682 38775 ft 420 kts 254°
2026-05-05 16:55 44.01068 -82.83396 38780 ft 420 kts 254°
2026-05-05 16:56 43.99348 -82.91150 38778 ft 419 kts 254°
2026-05-05 16:56 43.97623 -82.98894 38786 ft 419 kts 254°
2026-05-05 16:57 43.95894 -83.06630 38789 ft 419 kts 254°
2026-05-05 16:57 43.94158 -83.14373 38785 ft 419 kts 254°
2026-05-05 16:58 43.92430 -83.22046 38781 ft 419 kts 254°
2026-05-05 16:58 43.90688 -83.29756 38774 ft 418 kts 254°
2026-05-05 16:59 43.88943 -83.37458 38771 ft 418 kts 254°
2026-05-05 16:59 43.87186 -83.45179 38769 ft 418 kts 254°
2026-05-05 17:00 43.85439 -83.52829 38767 ft 418 kts 254°
2026-05-05 17:00 43.83673 -83.60537 38776 ft 418 kts 254°
2026-05-05 17:01 43.81908 -83.68215 38769 ft 419 kts 254°
2026-05-05 17:01 43.80133 -83.75904 38770 ft 418 kts 254°
2026-05-05 17:02 43.78360 -83.83561 38780 ft 419 kts 254°
2026-05-05 17:02 43.76573 -83.91253 38782 ft 418 kts 254°
2026-05-05 17:03 43.75079 -83.97662 38775 ft 418 kts 254°
2026-05-05 17:03 43.73287 -84.05326 38778 ft 417 kts 254°
2026-05-05 17:04 43.71493 -84.12971 38784 ft 417 kts 254°
2026-05-05 17:04 43.69702 -84.20578 38791 ft 418 kts 254°
2026-05-05 17:05 43.67891 -84.28245 38787 ft 418 kts 254°
2026-05-05 17:05 43.66085 -84.35861 38775 ft 418 kts 254°
2026-05-05 17:06 43.64277 -84.43464 38779 ft 418 kts 254°
2026-05-05 17:06 43.62444 -84.51144 38785 ft 418 kts 254°
2026-05-05 17:07 43.60625 -84.58738 38785 ft 418 kts 254°
2026-05-05 17:07 43.58798 -84.66339 38796 ft 418 kts 254°
2026-05-05 17:08 43.56950 -84.74004 38796 ft 418 kts 254°
2026-05-05 17:08 43.54370 -84.81059 38823 ft 409 kts 233°
2026-05-05 17:09 43.52294 -84.83674 38819 ft 409 kts 221°
2026-05-05 17:09 43.49766 -84.85532 38820 ft 413 kts 208°
2026-05-05 17:09 43.46929 -84.86488 38820 ft 420 kts 195°
2026-05-05 17:09 43.43948 -84.86441 38823 ft 426 kts 182°
2026-05-05 17:10 43.38226 -84.84674 38791 ft 413 kts 177°
2026-05-05 17:10 43.32734 -84.82084 38816 ft 436 kts 160°
2026-05-05 17:11 43.30174 -84.79687 38829 ft 458 kts 147°
2026-05-05 17:11 43.27774 -84.76514 38811 ft 468 kts 143°
2026-05-05 17:11 43.25630 -84.73170 38840 ft 476 kts 130°
2026-05-05 17:11 43.23966 -84.69161 38837 ft 486 kts 117°
2026-05-05 17:12 43.22912 -84.64733 38829 ft 492 kts 103°
2026-05-05 17:12 43.22525 -84.60090 38833 ft 496 kts 89°
2026-05-05 17:12 43.22831 -84.55337 38843 ft 503 kts 76°
2026-05-05 17:12 43.23836 -84.50709 38847 ft 506 kts 62°
2026-05-05 17:13 43.25473 -84.46488 38853 ft 507 kts 49°
2026-05-05 17:13 43.27705 -84.42763 38851 ft 503 kts 36°
2026-05-05 17:13 43.30245 -84.39400 38837 ft 514 kts 44°
2026-05-05 17:13 43.32382 -84.35432 38838 ft 528 kts 53°
2026-05-05 17:14 43.35987 -84.26448 38835 ft 545 kts 60°
2026-05-05 17:14 43.39355 -84.17017 38831 ft 558 kts 61°
2026-05-05 17:15 43.42771 -84.07269 38828 ft 568 kts 61°
2026-05-05 17:15 43.46247 -83.97359 38818 ft 578 kts 61°
2026-05-05 17:16 43.49770 -83.87353 38811 ft 581 kts 61°
2026-05-05 17:16 43.53312 -83.77323 38817 ft 580 kts 61°
2026-05-05 17:17 43.56830 -83.67393 38816 ft 579 kts 61°
2026-05-05 17:17 43.60396 -83.57367 38824 ft 579 kts 61°
2026-05-05 17:18 43.63858 -83.47354 38830 ft 581 kts 69°
2026-05-05 17:18 43.64955 -83.41970 38846 ft 583 kts 80°
2026-05-05 17:18 43.65475 -83.36410 38827 ft 584 kts 86°
2026-05-05 17:19 43.65913 -83.25173 38814 ft 584 kts 86°
2026-05-05 17:19 43.67053 -83.14120 38820 ft 583 kts 77°
2026-05-05 17:20 43.68731 -83.03157 38834 ft 583 kts 81°
2026-05-05 17:20 43.69846 -82.92127 38839 ft 582 kts 81°
2026-05-05 17:21 43.71287 -82.81104 38827 ft 582 kts 80°
2026-05-05 17:22 43.73159 -82.64591 38823 ft 581 kts 80°
2026-05-05 17:22 43.74493 -82.53570 38828 ft 580 kts 81°
2026-05-05 17:23 43.75735 -82.42527 38833 ft 579 kts 81°
2026-05-05 17:23 43.77015 -82.31573 38839 ft 579 kts 81°
2026-05-05 17:24 43.78251 -82.20555 38839 ft 579 kts 81°
2026-05-05 17:24 43.79506 -82.09500 38848 ft 580 kts 81°
2026-05-05 17:25 43.80726 -81.98518 38842 ft 580 kts 82°
2026-05-05 17:25 43.81952 -81.87466 38838 ft 580 kts 82°
2026-05-05 17:26 43.83156 -81.76461 38836 ft 580 kts 82°
2026-05-05 17:26 43.84351 -81.65468 38837 ft 580 kts 82°
2026-05-05 17:27 43.85547 -81.54345 38828 ft 580 kts 82°
2026-05-05 17:27 43.86728 -81.43268 38825 ft 580 kts 82°
2026-05-05 17:28 43.87893 -81.32237 38820 ft 579 kts 82°
2026-05-05 17:28 43.89043 -81.21237 38815 ft 579 kts 82°
2026-05-05 17:29 43.89999 -81.12015 38810 ft 579 kts 83°
2026-05-05 17:29 43.90178 -81.04631 38835 ft 573 kts 98°
2026-05-05 17:29 43.89663 -80.99193 38814 ft 561 kts 103°
2026-05-05 17:29 43.89200 -80.95688 38792 ft 544 kts 105°
2026-05-05 17:30 43.88439 -80.90515 38617 ft 550 kts 104°
2026-05-05 17:30 43.87814 -80.85286 38102 ft 557 kts 100°
2026-05-05 17:30 43.87374 -80.79929 37292 ft 560 kts 99°
2026-05-05 17:30 43.86899 -80.74548 36485 ft 563 kts 102°
2026-05-05 17:31 43.86267 -80.69147 35716 ft 564 kts 103°
2026-05-05 17:31 43.85624 -80.63738 34978 ft 568 kts 101°
2026-05-05 17:31 43.85079 -80.58294 34253 ft 570 kts 100°
2026-05-05 17:31 43.84551 -80.52852 33493 ft 560 kts 101°
2026-05-05 17:32 43.83965 -80.47474 32639 ft 539 kts 102°
2026-05-05 17:32 43.83383 -80.42395 31806 ft 522 kts 102°
2026-05-05 17:32 43.82853 -80.37490 31013 ft 508 kts 102°
2026-05-05 17:32 43.82359 -80.32759 30243 ft 495 kts 102°
2026-05-05 17:33 43.81856 -80.28115 29437 ft 483 kts 102°
2026-05-05 17:33 43.81343 -80.23534 28585 ft 473 kts 103°
2026-05-05 17:33 43.80852 -80.19101 27749 ft 464 kts 103°
2026-05-05 17:33 43.80373 -80.14704 26937 ft 453 kts 103°
2026-05-05 17:34 43.79908 -80.10475 26164 ft 443 kts 103°
2026-05-05 17:34 43.79439 -80.06270 25400 ft 434 kts 104°
2026-05-05 17:34 43.78975 -80.02131 24652 ft 425 kts 104°
2026-05-05 17:34 43.78538 -79.98208 23957 ft 416 kts 104°
2026-05-05 17:35 43.78093 -79.94231 23218 ft 407 kts 105°
2026-05-05 17:35 43.77661 -79.90391 22388 ft 399 kts 105°
2026-05-05 17:35 43.77237 -79.86643 21598 ft 392 kts 105°
2026-05-05 17:35 43.76822 -79.82983 20821 ft 385 kts 105°
2026-05-05 17:36 43.76411 -79.79355 20064 ft 379 kts 105°
2026-05-05 17:36 43.76006 -79.75796 19359 ft 371 kts 105°
2026-05-05 17:36 43.75607 -79.72302 18675 ft 364 kts 106°
2026-05-05 17:36 43.75212 -79.68855 17998 ft 358 kts 106°
2026-05-05 17:37 43.74825 -79.65495 17208 ft 353 kts 106°
2026-05-05 17:37 43.74440 -79.62148 16436 ft 348 kts 106°
2026-05-05 17:37 43.74061 -79.58865 15684 ft 343 kts 107°
2026-05-05 17:37 43.73594 -79.55654 14929 ft 329 kts 118°
2026-05-05 17:38 43.72557 -79.53025 14228 ft 305 kts 139°
2026-05-05 17:38 43.71112 -79.51005 13522 ft 289 kts 149°
2026-05-05 17:38 43.69630 -79.49154 12740 ft 285 kts 149°
2026-05-05 17:38 43.68167 -79.47330 11956 ft 281 kts 149°
2026-05-05 17:39 43.66726 -79.45517 11207 ft 278 kts 149°
2026-05-05 17:39 43.65302 -79.43723 10470 ft 275 kts 149°
2026-05-05 17:39 43.63897 -79.41959 9761 ft 270 kts 149°
2026-05-05 17:39 43.62531 -79.40241 9013 ft 266 kts 148°
2026-05-05 17:40 43.61266 -79.38301 8222 ft 270 kts 139°
2026-05-05 17:40 43.60123 -79.36296 7492 ft 268 kts 138°
2026-05-05 17:40 43.58940 -79.34351 6744 ft 259 kts 145°
2026-05-05 17:40 43.57482 -79.33045 5991 ft 246 kts 162°
2026-05-05 17:41 43.55967 -79.31951 5239 ft 245 kts 162°
2026-05-05 17:41 43.54414 -79.31069 4481 ft 235 kts 176°
2026-05-05 17:41 43.52825 -79.31075 3772 ft 224 kts 197°
2026-05-05 17:41 43.51433 -79.31861 3281 ft 213 kts 217°
2026-05-05 17:42 43.50393 -79.33244 2997 ft 201 kts 237°
2026-05-05 17:42 43.49809 -79.34874 2986 ft 187 kts 253°
2026-05-05 17:42 43.49644 -79.36605 3001 ft 182 kts 270°
2026-05-05 17:42 43.49832 -79.38296 2977 ft 177 kts 283°
2026-05-05 17:43 43.50519 -79.39707 2999 ft 177 kts 305°
2026-05-05 17:43 43.51374 -79.40945 3005 ft 177 kts 310°
2026-05-05 17:43 43.52264 -79.42140 2995 ft 179 kts 311°
2026-05-05 17:43 43.53155 -79.43303 2997 ft 175 kts 312°
2026-05-05 17:44 43.54029 -79.44443 2997 ft 175 kts 312°
2026-05-05 17:44 43.54907 -79.45588 3001 ft 174 kts 312°
2026-05-05 17:44 43.55794 -79.46745 3004 ft 176 kts 312°
2026-05-05 17:44 43.56684 -79.47908 3005 ft 176 kts 313°
2026-05-05 17:45 43.57572 -79.49066 3002 ft 176 kts 312°
2026-05-05 17:45 43.58460 -79.50224 3004 ft 171 kts 312°
2026-05-05 17:45 43.59270 -79.51270 3005 ft 147 kts 312°
2026-05-05 17:45 43.59978 -79.52189 3000 ft 136 kts 311°
2026-05-05 17:46 43.60658 -79.53075 2816 ft 136 kts 311°
2026-05-05 17:46 43.61326 -79.53946 2515 ft 131 kts 311°
2026-05-05 17:46 43.61984 -79.54803 2137 ft 128 kts 310°
2026-05-05 17:46 43.62625 -79.55640 1903 ft 128 kts 311°
2026-05-05 17:47 43.63282 -79.56499 1729 ft 131 kts 311°
2026-05-05 17:47 43.63953 -79.57378 1538 ft 135 kts 311°
2026-05-05 17:47 43.64628 -79.58264 1355 ft 130 kts 312°
2026-05-05 17:47 43.65288 -79.59124 1157 ft 132 kts 312°
2026-05-05 17:48 43.65958 -79.60001 943 ft 131 kts 312°
2026-05-05 17:48 43.66603 -79.60847 750 ft 133 kts 310°
2026-05-05 17:48 43.67281 -79.61727 578 ft 123 kts 314°
2026-05-05 17:48 43.67600 -79.62148 578 ft 92 kts 321°
2026-05-05 17:49 43.67905 -79.62540 574 ft 39 kts 317°
2026-05-05 17:49 43.68054 -79.62729 577 ft 24 kts 332°
2026-05-05 17:49 43.68172 -79.62727 577 ft 9 kts 329°
2026-05-05 17:49 43.68201 -79.62742 576 ft 0 kts 348°
2026-05-05 17:50 43.68204 -79.62742 578 ft 0 kts 347°
2026-05-05 17:50 43.68207 -79.62743 579 ft 1 kts 346°
2026-05-05 17:50 43.68212 -79.62745 579 ft 1 kts 345°
2026-05-05 17:50 43.68218 -79.62747 577 ft 1 kts 344°
2026-05-05 17:51 43.68226 -79.62750 578 ft 1 kts 343°
2026-05-05 17:51 43.68241 -79.62755 578 ft 4 kts 346°
2026-05-05 17:51 43.68263 -79.62762 575 ft 0 kts 348°
2026-05-05 17:52 43.68264 -79.62762 575 ft 0 kts 348°
2026-05-05 17:52 43.68275 -79.62765 581 ft 3 kts 348°
2026-05-05 17:52 43.68312 -79.62775 576 ft 7 kts 349°
2026-05-05 17:53 43.68378 -79.62788 572 ft 12 kts
2026-05-05 17:53 43.68452 -79.62721 573 ft 14 kts 45°
2026-05-05 17:53 43.68498 -79.62652 575 ft 8 kts 58°
2026-05-05 17:53 43.68494 -79.62598 571 ft 6 kts 111°
2026-05-05 17:54 43.68491 -79.62541 574 ft 7 kts 89°
2026-05-05 17:54 43.68492 -79.62488 574 ft 0 kts 88°